ECMWFFLT2_500_spd_066.txt.gz
Wind_Speed
51 52 52 53 54 55 56 56 57 57 57 57 57 56 56 55 55 54 53 53 52 51 50 49 48 48 47 47 47 47 46 46 46 46 45 45 45 45 45 45 44 44 44 43 42 42 41 41 41 41 42 43
52 53 54 55 56 56 57 57 58 57 57 57 56 56 55 55 54 53 53 52 52 51 50 50 49 48 48 47 47 47 47 46 46 46 45 45 45 45 45 45 45 44 44 43 43 42 42 42 42 42 42 43
53 54 55 56 57 58 58 58 58 57 57 56 55 55 54 53 53 53 52 52 52 51 51 51 50 49 49 48 48 47 47 47 46 46 46 45 45 45 45 46 46 45 45 45 44 44 43 43 43 43 43 43
55 56 56 57 58 58 58 58 57 57 56 55 54 54 53 52 52 51 51 51 51 51 51 50 50 50 49 49 48 48 47 47 47 46 46 46 46 45 45 46 47 47 46 46 46 45 45 44 44 43 44 44
55 56 57 57 57 57 57 57 56 55 54 54 53 52 51 50 50 49 49 49 49 49 49 49 49 49 49 49 48 48 48 47 47 47 46 46 46 46 46 47 47 48 48 48 47 47 47 46 45 45 45 45
56 56 56 56 56 56 56 55 54 53 53 51 50 49 48 47 47 46 46 46 46 46 47 47 47 47 47 48 48 48 48 48 48 48 47 47 47 48 48 48 48 49 49 49 49 49 48 48 47 47 46 46
55 55 55 54 54 54 53 53 52 51 50 49 48 47 46 45 44 44 43 43 43 43 44 45 45 45 46 46 47 47 47 48 48 48 49 49 49 49 49 49 49 50 50 50 50 50 50 49 49 49 48 48
54 54 53 52 52 51 51 50 49 48 47 46 44 43 42 41 41 41 40 40 40 41 41 42 43 43 44 44 45 46 46 47 48 49 49 50 50 50 50 50 50 51 51 51 52 52 51 51 50 50 50 50
53 52 51 50 50 49 48 47 46 45 44 42 41 40 39 38 38 38 38 38 38 38 38 39 40 41 41 42 42 43 44 46 47 48 49 50 50 51 51 51 52 52 52 52 53 53 52 52 52 51 51 51
51 50 50 49 47 47 46 44 43 42 40 40 39 38 37 37 36 36 36 37 37 37 37 37 38 39 40 40 41 41 42 43 44 46 47 48 49 50 51 51 52 52 52 53 53 53 53 53 52 52 53 53
50 49 48 47 46 45 43 42 40 39 38 38 38 37 37 36 37 37 37 37 37 37 37 37 37 38 39 39 40 40 40 41 42 43 44 46 47 48 49 50 50 51 51 52 52 52 53 53 53 54 54 54
49 48 47 46 44 43 41 40 38 38 38 38 38 38 38 38 38 39 39 39 38 38 38 38 38 38 39 39 40 40 40 40 41 42 43 44 45 46 47 48 49 49 50 51 51 52 53 54 55 55 56 56
47 46 46 45 43 42 40 39 38 38 39 39 39 40 40 40 40 41 41 41 40 40 40 40 39 39 40 40 41 41 41 41 41 42 43 44 45 46 47 48 48 49 50 51 52 53 54 55 56 56 56 56
46 45 45 44 43 41 40 39 39 39 40 41 41 42 42 42 42 42 42 43 43 42 42 41 41 41 41 41 42 42 42 43 43 43 44 44 45 46 47 48 49 50 51 52 53 53 54 55 55 56 56 57
45 45 45 44 43 42 41 41 40 41 42 43 43 43 43 43 43 43 44 44 44 43 43 43 42 42 42 42 43 43 44 44 45 45 46 46 47 47 48 49 50 51 51 52 53 54 54 55 56 57 58 58
45 45 45 44 43 42 42 42 42 43 44 44 45 45 45 45 45 45 45 45 45 45 45 45 45 45 45 45 45 46 46 47 48 48 49 49 50 50 51 52 52 53 54 55 55 56 57 57 58 59 60 61
46 46 45 45 44 44 43 43 43 44 45 45 46 46 47 47 48 48 48 48 48 48 48 49 49 49 49 49 49 49 50 50 51 52 53 53 54 54 55 55 56 57 58 58 59 60 60 61 62 62 63 64
47 46 46 46 46 45 45 44 45 45 45 46 47 48 49 49 50 50 51 51 51 52 52 52 53 53 54 54 53 53 54 54 54 55 56 57 58 58 58 59 60 61 62 63 63 64 65 65 66 67 67 68
48 48 48 48 47 47 47 47 47 46 47 48 49 50 51 51 52 53 53 53 54 54 55 56 56 57 58 58 58 58 58 58 59 59 59 60 61 62 63 63 64 65 66 66 67 68 69 70 70 71 72 73
50 49 49 50 50 49 50 50 50 50 50 51 51 52 52 53 54 54 55 55 56 57 58 58 59 60 61 61 62 62 62 63 63 63 63 63 64 65 66 67 68 69 69 70 71 72 73 74 75 75 76 77
52 51 51 52 52 52 53 54 55 55 55 55 55 55 55 55 56 56 56 57 58 59 60 61 61 63 63 64 65 65 66 66 67 67 67 67 68 68 69 69 70 71 73 73 74 74 75 76 77 78 79 80
53 53 53 53 54 55 57 58 59 59 59 59 60 60 59 59 58 58 58 59 59 60 61 62 63 65 66 67 67 68 69 69 70 70 70 70 71 71 71 71 71 72 73 74 75 75 75 76 77 78 79 79
54 54 55 55 56 58 59 61 62 62 62 63 63 63 62 61 61 60 60 61 61 62 63 64 65 67 68 69 70 70 71 71 72 72 72 72 72 72 72 72 72 72 73 73 74 74 75 76 77 78 78 79
55 56 57 58 59 60 62 63 63 64 65 65 65 64 63 63 62 62 62 62 63 64 65 66 67 68 69 70 70 71 71 71 72 72 73 73 73 73 73 73 74 74 74 74 74 75 75 76 77 78 79 79
57 58 59 59 60 61 63 64 65 66 66 66 65 65 64 64 63 63 64 65 66 66 67 68 68 69 69 70 70 71 71 71 72 73 73 74 74 74 74 74 75 76 76 76 76 76 76 77 78 79 80 80
59 59 60 60 61 63 64 65 66 66 66 66 66 65 65 64 65 65 66 66 67 68 68 68 68 69 69 70 70 71 71 72 73 73 74 74 75 75 75 75 76 77 78 78 79 79 78 78 78 80 81 82
60 60 61 62 64 65 65 65 66 66 66 66 66 65 66 66 67 67 67 67 68 68 68 68 69 69 70 70 71 71 72 73 73 74 75 76 76 76 76 77 77 79 80 80 81 82 81 81 80 80 81 83
61 62 63 64 65 66 65 65 65 66 66 66 67 67 68 68 68 68 68 68 68 69 69 69 70 70 70 71 72 72 73 73 74 75 76 77 77 78 78 78 79 80 80 81 82 83 83 83 83 81 82 83
62 63 64 64 65 66 66 66 66 66 67 68 69 69 69 69 69 69 69 69 69 70 70 71 71 71 71 72 73 73 74 74 75 76 76 77 78 78 79 79 79 80 81 82 83 84 84 84 84 84 84 85
63 63 64 65 65 66 67 67 67 68 69 69 70 70 70 70 71 71 71 71 72 72 72 72 72 72 72 73 73 74 75 75 76 77 77 78 78 79 79 80 79 79 81 82 83 84 85 86 86 86 87 87
64 65 66 66 66 66 67 68 69 69 70 70 70 70 71 72 72 73 74 74 74 74 75 75 74 74 74 74 75 75 76 76 77 78 78 79 79 80 80 81 80 80 81 82 82 84 85 86 87 87 88 89

ECMWFFLT2_500_spd_069.txt.gz
Wind_Speed
46 47 47 48 49 50 51 52 53 54 55 56 57 58 58 59 60 61 61 61 62 62 62 61 61 60 60 59 57 56 55 55 54 54 54 54 53 52 51 50 49 48 47 47 47 47 47 47 48 48 48 48
47 48 49 50 51 52 53 54 55 56 56 57 58 59 59 60 60 61 61 61 61 61 61 60 60 59 58 57 56 55 55 54 53 53 53 53 52 52 51 51 49 48 48 47 47 47 47 48 48 48 48 48
49 50 50 51 52 53 54 55 56 57 57 58 59 59 60 60 60 60 60 60 59 59 59 58 58 57 56 55 55 54 54 53 53 52 52 52 52 52 52 51 50 49 48 48 47 47 48 48 48 48 48 48
50 51 52 53 53 54 55 56 57 58 58 59 60 60 60 60 59 58 58 57 57 56 56 55 55 54 54 53 53 53 53 53 52 52 52 52 52 52 52 52 51 51 50 49 48 48 48 48 49 49 49 49
51 52 53 54 55 55 56 57 58 59 60 60 60 60 59 59 58 57 56 55 54 54 53 53 52 51 51 51 51 51 51 51 51 51 51 51 51 51 51 52 52 52 51 50 49 49 49 49 49 49 49 50
53 53 54 54 55 56 57 58 59 60 60 60 59 59 58 57 56 55 54 53 52 51 50 50 49 49 49 49 48 48 49 49 49 50 49 49 49 49 50 50 51 51 52 51 51 50 50 50 50 50 50 50
54 54 54 55 56 57 58 59 59 59 59 58 58 57 56 55 54 53 52 51 50 48 48 47 46 46 46 46 46 45 46 46 46 47 47 48 48 48 48 49 49 50 51 52 52 51 51 51 51 51 51 51
54 54 55 56 57 58 58 58 58 58 57 57 57 56 55 53 52 51 49 48 47 46 44 44 43 43 43 43 43 43 43 43 43 44 44 45 46 46 47 48 48 49 50 51 52 52 52 52 52 52 52 52
54 54 56 57 57 58 57 57 57 57 56 56 55 54 53 51 50 49 47 46 45 43 42 41 41 41 41 41 41 41 41 41 41 41 42 42 43 44 45 46 47 48 49 50 51 52 53 53 53 53 53 53
55 56 57 58 57 57 56 56 56 56 55 55 54 52 51 49 48 47 45 44 43 42 41 41 41 41 41 42 42 41 41 41 40 40 40 41 41 42 42 44 45 46 48 49 50 52 53 53 54 54 54 54
56 57 58 58 57 56 56 55 55 55 55 53 52 51 49 48 46 45 44 44 44 44 43 43 43 43 43 43 43 43 42 42 41 41 41 40 40 41 41 41 42 44 45 47 48 50 52 53 54 54 54 55
57 57 57 57 56 55 55 55 55 55 53 52 51 49 48 47 46 45 44 45 45 45 45 45 45 45 45 45 45 44 44 44 44 43 43 42 42 41 41 41 42 42 43 44 45 47 49 51 52 53 54 54
57 57 57 56 55 55 55 55 55 54 52 51 50 49 48 47 46 45 45 45 46 47 47 47 47 47 47 47 47 47 46 46 46 46 46 45 44 44 43 43 43 43 43 44 44 45 47 48 49 51 52 53
57 57 56 55 55 54 54 54 54 53 52 52 51 50 49 48 47 46 46 46 47 48 48 48 48 48 48 49 49 48 48 48 47 47 48 47 47 46 46 46 45 45 45 46 46 46 47 48 48 49 50 51
57 56 56 55 55 54 54 54 53 53 53 52 52 51 49 48 48 47 47 47 48 49 49 49 49 50 50 50 50 50 49 49 49 48 49 49 49 48 48 48 47 47 47 48 48 48 48 49 50 50 51 51
55 55 55 54 54 54 53 54 54 54 53 53 52 52 51 50 49 48 48 49 49 50 50 50 50 51 52 52 51 51 51 50 50 50 50 50 50 50 50 50 50 49 49 49 50 50 50 50 51 51 52 53
54 53 53 53 53 53 54 55 55 54 54 53 53 53 52 52 51 50 50 50 50 50 50 51 51 52 53 54 53 53 53 53 53 53 52 52 52 52 52 52 53 53 52 52 52 52 52 52 53 53 53 54
53 52 52 52 53 54 55 56 55 55 54 54 54 54 54 54 54 53 53 53 52 52 52 52 53 54 55 56 56 56 56 56 56 56 56 56 56 55 56 56 56 57 56 56 56 56 56 56 56 56 56 57
52 52 52 53 54 55 56 57 57 56 55 55 55 55 56 56 56 56 56 56 56 56 56 56 56 56 57 57 58 58 59 59 59 60 60 60 60 59 59 59 59 60 60 60 60 60 60 60 60 60 61 61
53 53 53 54 55 56 57 58 58 57 57 56 56 56 56 57 58 59 59 60 60 60 60 61 61 61 61 61 60 61 61 61 62 62 63 63 63 63 63 63 63 63 64 64 64 64 64 64 64 64 65 65
54 54 54 55 56 57 58 58 58 58 57 57 57 56 57 58 59 60 61 62 63 63 64 64 64 64 64 64 64 63 63 63 64 65 65 65 66 66 66 66 66 66 67 67 66 66 67 68 68 68 68 69
54 55 55 56 57 58 59 59 59 58 58 58 57 58 58 59 60 60 61 62 63 64 65 65 66 66 66 67 66 66 65 65 66 66 66 66 67 68 68 68 68 69 70 70 69 69 70 70 71 71 71 72
54 55 56 56 57 58 59 60 60 60 60 59 59 59 60 60 61 62 62 63 64 65 66 66 67 67 68 68 68 67 67 67 67 68 68 69 69 70 71 71 71 72 72 72 72 72 72 73 73 74 74 74
54 55 56 57 58 59 60 61 61 62 62 62 61 61 61 61 62 63 64 65 66 66 67 67 68 68 68 69 69 69 68 68 69 70 70 71 71 71 72 73 74 74 74 74 74 74 74 74 74 75 76 76
55 56 57 58 59 59 60 61 62 62 63 63 63 63 63 63 64 65 65 66 67 67 67 68 68 68 69 69 70 70 71 71 71 72 72 73 73 73 73 73 74 76 76 76 76 75 75 75 75 75 76 76
57 58 59 60 60 60 60 60 61 62 63 64 65 65 65 65 65 66 66 67 67 67 68 68 68 69 70 71 72 72 73 73 73 73 73 74 74 74 74 74 74 76 77 77 77 77 76 76 76 76 77 77
59 60 60 60 60 60 59 59 60 61 62 64 65 66 67 67 67 67 67 68 68 68 68 69 69 70 72 73 73 74 74 73 73 73 73 74 74 75 75 75 75 76 77 78 78 79 78 77 76 75 77 78
60 60 61 61 61 61 61 61 61 61 62 63 64 66 67 69 69 69 69 69 69 70 70 70 71 71 72 73 74 74 74 73 73 74 74 75 76 76 76 76 76 77 77 78 80 80 80 80 79 78 77 78
61 62 62 62 62 62 63 63 63 63 63 63 64 65 66 68 70 71 71 72 72 72 72 72 73 73 73 73 74 74 74 74 74 75 76 77 77 78 78 78 78 78 78 79 80 81 82 82 82 81 80 79
62 63 63 64 64 64 64 65 65 65 65 65 65 65 66 68 70 72 73 74 75 75 75 74 74 75 75 75 76 76 76 76 76 77 77 78 79 79 80 80 80 79 79 80 80 81 82 83 84 83 83 83
63 64 65 66 67 67 68 68 68 69 69 69 68 69 69 69 70 71 73 74 76 77 77 77 77 78 78 78 79 79 79 79 79 79 79 80 80 81 81 82 81 80 81 81 81 82 83 83 84 85 85 85

ECMWFFLT2_500_spd_072.txt.gz
Wind_Speed
43 44 44 45 45 45 46 46 46 47 48 49 50 51 52 53 54 55 56 57 58 59 60 61 62 63 63 64 65 66 66 67 67 67 67 67 67 66 65 64 63 61 60 58 57 57 56 55 54 53 54 54
45 45 46 47 47 47 47 47 48 49 50 51 51 53 53 54 55 56 57 59 59 60 61 62 63 63 64 65 66 66 66 66 66 66 66 66 66 66 64 63 62 61 59 57 56 56 55 54 54 53 53 53
47 47 48 48 48 48 48 49 50 50 51 52 53 54 55 56 57 58 59 60 60 61 62 62 63 64 65 66 66 66 66 65 64 64 63 63 63 63 63 63 61 60 58 57 56 55 54 54 53 53 53 53
49 50 50 50 50 50 50 51 52 53 54 54 55 56 57 58 59 59 60 60 61 62 62 63 64 64 65 65 65 64 63 63 62 62 61 60 60 60 60 61 60 60 58 57 56 55 54 54 53 53 53 53
51 51 51 51 51 52 52 53 54 55 56 56 57 58 59 60 60 60 61 61 61 62 62 63 63 63 63 63 63 62 61 60 59 59 58 58 57 57 57 58 59 59 58 57 56 55 55 54 53 53 53 53
52 53 53 53 53 53 54 55 56 57 57 58 59 60 60 61 61 61 61 61 61 61 61 62 62 62 61 61 60 59 58 57 56 55 54 54 54 54 55 55 56 57 57 57 56 55 55 54 54 54 53 53
54 54 54 54 54 55 56 57 58 59 59 60 61 61 62 62 62 61 61 61 60 60 60 61 60 60 59 58 57 56 55 54 53 51 51 51 50 51 51 52 53 54 55 56 56 55 55 54 54 54 54 54
55 55 55 56 57 58 58 59 60 60 61 62 62 63 63 62 62 61 61 60 60 60 60 59 59 58 56 55 54 52 51 50 49 48 47 47 46 47 47 48 49 50 51 52 53 54 54 54 53 53 53 54
56 56 57 58 59 60 60 61 61 62 62 63 63 63 63 62 62 61 60 60 60 60 59 58 57 56 54 52 50 48 47 47 46 45 44 44 44 43 43 44 45 46 47 48 50 51 52 52 52 52 53 53
58 58 59 60 61 61 62 62 63 63 63 64 63 63 63 62 61 61 60 60 60 59 59 58 56 54 52 50 48 46 45 44 44 44 44 44 43 43 43 42 43 43 44 45 46 47 49 50 51 51 52 52
60 60 61 61 62 62 62 63 63 64 64 63 63 63 62 61 61 60 60 59 59 59 57 56 55 53 51 49 47 45 44 44 44 44 45 45 45 44 44 43 43 43 43 43 44 45 46 47 49 50 51 52
61 62 62 62 62 62 63 63 64 64 64 63 63 62 62 61 60 60 59 59 58 57 55 55 54 52 50 49 47 46 45 45 45 45 46 46 46 46 45 45 44 43 43 43 43 44 45 45 46 48 49 50
62 62 62 62 63 63 64 64 64 63 63 62 62 61 61 61 60 60 59 58 56 55 54 54 53 52 51 50 49 48 47 47 47 47 47 47 47 47 47 47 46 46 45 44 44 44 44 45 45 46 47 48
62 62 63 63 64 64 64 63 63 63 62 61 61 61 61 60 60 59 58 57 56 55 54 54 54 53 52 51 51 49 49 49 48 48 48 48 47 47 47 48 48 48 47 47 46 46 45 46 46 46 46 47
62 63 63 63 64 64 63 63 62 62 61 61 60 60 60 60 59 59 58 58 56 55 54 54 54 54 54 53 53 52 51 50 50 49 48 49 48 48 48 48 49 49 48 48 48 48 47 47 47 47 47 47
63 63 63 64 64 63 63 63 62 61 61 60 60 59 59 59 59 59 59 58 57 55 55 54 54 54 54 55 55 54 53 52 51 50 49 49 49 49 49 49 50 50 50 49 50 50 49 49 48 48 49 49
63 64 64 64 63 63 62 62 61 61 60 59 58 58 58 59 59 59 59 59 57 56 55 55 54 54 55 56 56 56 56 55 54 52 51 50 50 50 50 50 51 52 51 51 51 52 52 51 50 50 50 50
64 64 64 63 62 62 61 60 60 59 58 57 57 58 59 59 60 60 60 59 58 57 56 56 56 56 56 57 58 58 59 58 57 56 55 54 53 52 52 52 52 53 54 54 54 54 54 54 53 53 52 52
64 63 62 62 61 60 59 58 57 57 56 57 57 58 59 60 60 61 61 60 58 58 57 57 57 57 57 58 59 60 61 61 61 60 59 58 57 57 56 55 55 55 55 56 56 56 57 57 57 56 56 56
62 61 60 59 59 58 57 57 56 56 57 57 58 59 60 60 61 61 61 61 60 59 58 58 58 59 59 60 60 61 61 62 63 63 63 63 62 61 60 60 59 58 58 58 58 59 59 60 60 60 59 59
60 59 58 58 57 57 57 57 57 57 57 58 59 59 60 61 61 61 62 62 61 61 60 60 60 60 61 61 61 62 62 63 64 65 65 65 65 65 64 63 63 63 62 62 61 61 61 62 63 62 62 63
58 57 57 57 57 57 57 58 58 58 59 59 59 60 61 61 62 63 63 63 64 63 62 62 61 61 61 62 62 62 63 63 64 65 66 65 66 67 67 65 65 65 65 65 64 63 63 64 65 65 65 65
57 57 57 56 57 57 57 58 58 59 60 61 61 62 63 63 64 64 64 64 64 64 63 62 62 62 62 62 62 63 63 64 65 65 66 66 66 67 67 67 67 67 67 67 67 66 66 66 66 67 67 67
57 57 57 57 57 57 58 59 59 60 61 62 63 64 64 64 65 65 65 65 64 64 63 63 62 62 63 63 63 64 64 65 66 67 67 68 68 68 68 69 69 69 69 69 69 69 68 68 68 68 69 69
57 57 57 57 58 58 59 60 61 62 62 63 64 64 63 63 62 62 63 63 64 65 65 65 64 64 64 64 65 65 66 66 67 68 69 70 70 70 70 70 71 72 72 72 72 71 71 70 71 71 71 71
58 58 58 58 59 60 61 62 63 63 63 63 63 63 62 62 61 61 62 62 63 64 65 66 66 66 66 66 67 67 67 68 68 69 71 72 72 73 73 72 73 74 75 75 75 75 74 73 73 73 74 74
59 59 59 60 61 62 63 63 63 64 64 63 63 63 63 63 62 62 63 63 63 64 65 66 67 68 68 68 69 69 69 69 70 70 72 73 74 75 75 75 75 76 77 78 78 78 78 76 75 74 75 76
60 60 61 62 63 64 64 64 64 64 64 64 64 63 63 64 64 64 64 64 64 65 66 67 68 68 69 69 70 70 70 70 71 71 72 73 74 76 76 76 76 77 78 79 80 81 80 80 79 76 75 76
61 62 62 63 64 64 64 64 64 64 64 63 63 64 64 65 65 65 65 66 66 67 68 68 68 69 69 69 70 70 71 71 71 72 72 73 74 75 76 76 76 76 77 78 80 82 82 83 82 80 79 77
63 63 64 65 65 64 64 64 64 64 64 63 64 64 65 66 67 67 68 68 69 69 69 69 69 69 69 69 70 70 71 71 72 72 73 74 75 76 76 77 77 76 77 78 79 81 83 84 85 84 83 81
64 65 65 66 65 66 66 65 65 64 65 65 66 66 67 68 69 70 70 71 71 70 70 69 69 69 69 69 69 70 71 71 72 73 74 75 76 77 78 79 78 78 78 79 79 80 82 84 85 86 85 85

ECMWFFLT2_500_spd_075.txt.gz
Wind_Speed
43 43 44 44 44 44 44 44 44 44 45 45 46 47 48 48 49 49 49 50 50 51 51 52 52 52 53 53 54 55 56 56 57 58 59 59 60 61 62 63 64 66 67 68 68 69 69 69 68 68 67 66
44 44 44 45 45 45 45 45 46 46 47 47 48 49 49 50 50 51 51 51 52 52 53 53 54 54 54 55 56 56 57 58 58 59 60 60 61 62 63 65 66 68 69 69 70 70 69 69 68 67 67 67
45 45 46 46 46 47 47 47 47 48 48 49 50 51 51 51 52 52 53 53 53 54 54 55 55 56 56 57 57 58 58 59 59 60 60 61 62 64 65 66 68 69 70 70 70 69 69 68 67 66 66 66
47 47 47 48 48 48 48 49 49 50 50 51 52 52 53 53 53 54 54 54 55 56 56 57 57 58 58 59 59 59 59 60 60 60 61 62 63 64 65 67 68 69 70 70 69 69 68 67 66 65 65 64
48 49 49 49 49 50 50 50 51 51 52 53 54 54 54 54 55 55 56 56 57 57 58 59 59 59 60 60 60 60 60 60 60 61 62 63 64 64 65 66 67 68 68 68 68 68 67 66 66 64 63 63
49 50 50 51 51 51 51 52 52 53 54 54 55 55 55 56 56 57 57 58 58 59 60 60 60 60 61 61 60 60 60 60 61 61 62 63 63 64 64 65 65 65 65 65 65 65 65 65 64 63 62 62
50 51 52 52 52 52 53 54 54 55 55 56 56 57 57 57 58 58 59 59 60 60 61 61 61 61 61 61 60 60 60 60 60 61 62 62 63 63 63 63 63 62 62 62 61 61 62 62 62 62 61 61
52 52 53 53 54 54 55 55 56 56 57 57 58 58 58 59 59 60 60 61 61 62 62 62 62 62 62 61 60 60 59 60 60 60 61 62 62 61 61 60 59 58 57 57 57 57 58 58 59 59 59 59
53 54 55 55 55 56 56 57 57 58 58 59 59 60 60 60 61 61 61 62 62 63 63 63 63 63 62 61 60 59 59 59 59 60 60 60 59 59 59 57 56 54 53 52 52 52 53 54 55 55 56 56
55 56 56 56 57 58 58 59 59 60 60 60 61 61 61 62 62 62 62 63 63 63 64 64 63 63 62 61 60 60 59 59 59 58 58 57 57 56 56 55 53 51 49 48 48 48 49 50 51 51 52 52
57 57 58 59 59 60 60 61 61 61 61 61 62 62 62 63 63 63 63 63 63 64 64 64 63 63 62 61 61 60 59 58 58 57 56 55 54 54 53 52 51 49 47 46 46 46 46 47 48 48 48 49
59 59 60 61 61 62 62 62 62 62 62 62 62 63 63 63 63 63 63 63 63 63 63 63 63 62 62 61 60 60 58 57 56 55 54 53 53 53 52 51 50 48 47 47 46 46 46 46 46 47 47 47
61 62 62 63 63 63 63 63 63 63 63 63 63 63 63 63 63 63 63 63 63 63 63 63 63 62 62 61 60 58 57 56 54 54 53 53 53 52 52 52 50 49 48 48 47 47 46 46 46 46 46 46
63 63 64 64 64 64 64 64 63 63 63 63 63 63 64 63 63 63 62 62 62 62 63 63 63 62 61 60 58 57 56 54 53 53 53 53 53 53 53 52 52 50 49 49 49 48 47 46 46 46 46 47
64 65 64 64 64 64 64 63 63 63 63 63 63 63 63 63 62 62 62 62 62 62 62 62 62 61 60 58 57 56 55 54 54 54 54 53 53 53 53 53 53 52 51 50 49 49 48 47 47 47 47 47
65 65 64 64 64 63 63 63 63 63 63 63 63 63 63 62 62 62 62 62 62 62 61 61 60 60 59 58 57 57 56 55 55 55 55 55 54 53 53 54 55 54 53 51 49 48 48 47 47 47 48 48
64 64 63 63 63 63 62 63 63 63 63 62 62 62 62 61 61 61 62 62 62 61 61 60 59 59 59 58 58 58 57 56 56 56 56 56 55 54 53 54 56 56 55 54 52 50 49 48 48 48 48 49
63 62 62 62 62 62 62 62 62 62 62 62 61 61 61 61 61 61 61 61 61 61 60 60 59 59 59 59 59 59 58 58 57 56 56 56 56 55 54 54 56 57 57 56 55 53 52 50 49 49 49 49
61 61 61 61 61 61 61 62 62 61 61 61 60 61 61 61 61 62 61 61 61 60 60 60 60 60 60 60 60 60 59 59 58 57 57 57 57 56 56 55 56 57 58 58 58 57 56 55 53 52 51 51
60 60 60 60 61 61 61 61 61 61 60 60 60 60 61 61 61 61 61 61 61 61 61 61 61 61 61 61 61 61 61 60 60 59 59 58 58 58 58 57 57 58 58 59 59 59 59 59 57 56 54 53
59 59 60 60 61 61 61 61 60 60 60 60 60 60 61 62 62 62 62 62 62 62 62 62 62 62 63 63 63 63 63 63 63 62 61 61 60 60 59 59 59 59 59 59 60 60 60 61 60 59 58 57
59 59 60 61 61 61 60 60 59 59 59 60 61 61 62 62 63 63 63 63 63 63 63 64 64 64 65 65 65 65 64 64 64 64 63 62 61 61 60 60 60 60 60 60 60 60 61 62 62 61 61 60
59 60 60 61 61 60 59 59 59 60 60 61 62 62 63 64 64 64 65 65 64 65 65 66 66 66 66 66 66 66 65 65 64 64 63 63 62 61 61 61 61 60 61 61 61 61 61 62 63 63 62 62
60 60 61 61 60 60 59 59 60 61 61 62 63 64 65 65 66 66 66 66 67 67 67 67 67 66 66 66 66 66 65 65 65 65 65 64 63 63 63 62 62 62 62 62 62 62 62 62 63 63 64 64
61 61 61 60 60 60 60 60 61 61 62 63 64 65 66 67 67 68 68 68 69 69 69 68 67 66 66 66 66 66 66 66 66 66 67 66 66 65 65 64 64 65 65 64 64 64 63 63 63 64 64 65
61 61 60 60 60 60 60 61 62 63 63 64 65 66 67 68 68 69 70 70 71 70 69 68 67 67 66 66 66 66 66 66 66 67 68 68 68 68 67 66 66 67 67 67 66 66 66 65 65 65 66 66
61 61 60 61 61 61 62 62 63 64 65 65 66 67 68 69 70 71 71 71 72 71 70 69 68 67 67 67 67 67 67 67 66 66 67 68 69 69 68 68 67 68 68 68 67 68 68 67 67 66 66 68
61 61 61 61 62 63 64 65 65 66 67 67 68 69 70 71 72 72 72 72 72 71 70 70 69 69 68 68 68 68 67 67 66 66 66 67 68 68 68 67 67 67 67 67 68 68 68 68 68 67 66 67
61 62 62 63 64 65 66 67 68 68 69 70 71 71 72 73 73 73 73 72 71 71 70 70 70 69 68 68 68 68 67 67 66 66 66 67 67 67 68 67 67 66 67 67 68 68 68 69 69 68 67 67
63 63 64 65 66 66 67 67 68 69 70 71 71 72 73 73 73 73 72 71 70 70 69 69 69 70 69 69 68 68 68 67 67 67 67 67 67 67 68 68 68 67 67 68 68 68 69 70 70 70 69 69
65 66 66 67 68 68 68 69 69 70 71 72 72 72 72 72 71 71 70 70 69 69 69 70 70 71 70 70 69 69 69 69 69 69 68 68 68 68 69 70 70 69 70 70 70 70 71 72 72 73 72 72

ECMWFFLT2_500_spd_078.txt.gz
Wind_Speed
50 50 50 50 50 50 49 49 49 49 49 49 49 49 49 49 49 50 50 50 51 51 51 51 52 52 52 52 53 53 53 53 53 53 53 53 53 54 54 54 54 55 55 55 56 57 58 59 59 60 61 62
51 50 50 50 50 50 50 50 50 50 50 50 50 50 50 51 51 51 52 52 52 52 53 53 53 53 53 54 54 54 54 54 54 54 54 54 54 55 55 55 56 56 56 57 57 58 59 60 61 61 62 63
50 50 50 50 50 50 50 50 51 51 51 51 51 52 52 52 53 53 53 53 53 54 54 54 54 54 54 54 55 55 55 55 55 55 56 56 56 57 57 57 58 58 58 59 59 60 60 61 62 63 64 65
50 51 51 51 51 52 52 52 53 53 53 53 53 53 54 54 54 54 54 54 55 55 55 55 55 55 55 55 56 56 56 56 57 57 57 58 58 58 59 59 59 60 60 61 61 62 62 63 63 64 65 66
52 52 52 53 54 54 54 54 55 55 55 54 54 54 55 55 55 55 55 55 55 56 56 56 56 56 56 56 57 57 57 58 58 59 59 59 60 60 60 60 61 61 62 62 63 63 64 64 65 66 66 67
53 54 55 55 56 56 56 56 56 56 55 55 55 55 55 55 55 56 56 56 56 56 57 57 57 57 58 58 58 58 59 59 60 60 61 61 61 61 62 62 62 62 63 63 64 64 65 66 66 67 68 68
55 56 56 56 57 57 57 57 56 56 56 56 56 56 56 56 56 57 57 57 58 58 58 58 58 59 59 59 59 60 60 61 61 61 62 62 62 63 63 63 63 63 63 64 64 65 65 66 67 68 69 69
56 57 57 57 58 58 58 57 57 57 56 56 56 57 57 58 58 59 59 59 59 59 59 59 59 60 60 60 60 61 61 62 62 62 63 63 63 63 63 63 63 64 64 64 65 66 66 67 68 68 69 69
57 57 58 58 58 58 58 57 57 58 58 58 59 59 60 60 60 60 60 60 60 60 60 60 61 61 61 61 61 61 62 62 63 63 63 63 63 63 63 63 63 64 65 65 66 67 67 67 67 67 68 68
58 58 58 58 58 58 58 58 59 59 60 60 61 61 62 62 62 62 61 61 61 61 61 61 61 61 61 61 62 62 63 63 64 64 64 64 63 63 63 63 63 64 65 66 67 67 67 67 66 65 65 65
59 59 59 59 59 59 60 60 61 62 62 62 62 63 63 63 62 62 62 62 62 62 62 62 62 62 62 62 63 63 64 64 65 65 64 64 63 63 63 63 64 65 66 66 66 67 67 66 65 63 62 61
60 60 60 60 61 61 61 62 63 63 63 63 64 64 63 63 63 62 62 62 62 62 62 62 62 62 63 63 64 64 65 65 65 64 64 63 63 63 63 64 64 65 66 66 65 65 65 64 63 61 59 58
62 62 62 62 62 63 63 63 64 64 64 64 64 64 64 63 63 62 62 62 62 62 62 63 63 63 64 64 64 65 65 65 64 64 64 64 64 64 64 64 64 65 65 64 64 63 62 61 60 59 58 57
63 63 63 63 63 64 64 65 65 65 65 65 64 64 63 63 63 62 62 62 62 62 63 63 64 64 64 64 64 64 64 64 64 64 64 64 64 64 64 64 63 63 62 62 62 61 60 59 58 58 58 56
64 64 64 64 65 65 65 66 65 65 65 64 64 63 63 63 62 62 62 62 62 63 63 64 64 64 64 64 64 64 64 64 64 64 65 64 64 64 63 62 61 60 60 59 59 59 58 57 57 57 57 57
65 65 65 66 66 66 66 66 65 65 65 64 64 63 63 62 62 62 62 62 62 63 63 64 64 64 64 64 64 64 64 64 64 64 64 64 63 63 62 61 60 59 58 58 58 58 57 56 57 57 57 57
66 66 66 66 66 66 66 65 65 65 64 64 63 63 62 62 62 62 62 62 63 63 63 63 63 63 63 63 63 63 63 63 64 64 63 63 62 61 60 59 59 58 57 57 57 57 56 56 56 57 57 58
66 66 66 66 65 65 65 65 64 64 63 63 63 63 63 63 63 63 63 63 63 63 63 63 63 63 63 63 63 63 63 63 63 63 62 62 61 60 60 59 59 58 57 57 56 56 56 56 56 56 57 58
65 65 65 65 65 64 64 64 64 63 63 63 63 63 63 63 63 63 63 63 63 64 63 63 63 64 63 63 63 63 63 63 63 62 62 61 61 60 60 60 59 59 58 58 57 56 56 56 56 56 57 58
64 64 64 64 64 63 63 63 63 63 63 63 63 63 63 63 63 63 63 64 64 64 64 64 64 64 64 63 63 63 63 63 63 63 62 62 61 61 61 61 61 61 60 60 59 59 58 58 57 57 57 58
63 63 63 63 63 62 62 62 62 62 62 62 62 63 63 63 63 64 64 64 64 64 64 64 64 64 64 64 64 64 64 64 64 64 63 63 63 63 63 63 63 63 63 63 62 62 61 60 59 59 58 58
62 62 62 62 61 61 61 61 61 62 62 62 63 63 63 64 64 64 64 64 64 64 64 64 64 65 65 65 66 66 66 66 65 65 65 65 65 65 66 66 66 65 65 65 64 64 63 62 60 59 59 59
60 60 60 60 61 61 61 61 62 62 62 63 63 63 64 64 65 65 65 65 64 64 65 65 66 66 67 67 67 67 68 68 67 67 67 67 67 68 68 68 67 67 66 65 65 64 63 63 61 60 59 59
59 59 59 60 60 61 61 62 62 63 63 64 64 64 65 65 65 65 65 65 65 65 66 67 68 68 69 70 70 70 70 70 70 69 69 69 69 69 69 69 68 67 67 66 65 64 64 63 62 61 61 60
58 59 59 60 61 62 62 63 63 64 64 64 65 65 66 66 66 66 65 66 66 67 68 69 70 71 71 72 72 72 72 72 71 71 71 71 70 70 69 69 69 69 68 68 67 66 65 65 64 63 63 62
59 59 60 61 62 63 64 64 65 65 65 65 66 66 66 66 66 66 66 67 68 69 70 71 72 73 74 74 74 74 74 73 73 72 72 72 71 71 71 70 70 70 70 70 69 68 67 66 66 65 64 64
60 60 62 63 64 65 65 66 66 66 66 66 66 66 66 66 66 67 67 68 69 70 71 73 74 75 76 76 76 76 76 75 74 74 74 73 73 72 72 71 71 71 71 71 70 70 69 68 67 66 65 66
61 62 63 64 65 66 66 67 67 67 66 66 66 66 67 67 67 68 68 69 70 71 73 75 76 77 77 77 78 77 77 77 76 76 76 75 74 74 73 72 72 71 71 71 71 71 70 69 68 67 66 66
62 63 63 64 66 67 67 67 67 67 66 66 65 66 67 68 69 69 70 71 73 74 75 76 77 78 78 78 78 79 78 78 78 77 76 76 75 75 74 73 72 71 71 71 71 72 71 70 69 68 67 67
63 63 63 65 66 67 67 67 67 67 66 66 66 67 68 69 71 72 73 74 75 75 76 76 77 77 78 79 79 79 79 78 77 76 76 75 75 75 74 74 72 71 70 70 71 71 71 71 70 69 68 68
64 64 65 66 67 68 69 69 68 68 68 68 68 69 70 71 72 73 73 74 75 75 76 76 76 77 78 79 79 78 77 76 75 75 74 74 74 74 74 73 73 71 70 70 70 70 71 71 71 70 70 69

ECMWFFLT2_500_spd_081.txt.gz
Wind_Speed
46 47 48 49 50 51 52 53 54 54 55 55 55 55 55 55 55 54 54 53 53 53 53 53 53 53 53 53 53 53 53 54 54 54 54 54 55 55 55 55 55 55 56 56 56 56 56 56 57 57 57 57
48 49 50 51 53 54 55 55 56 56 57 57 57 57 57 57 56 56 55 55 54 54 54 54 54 54 54 55 55 55 55 55 56 56 56 56 56 57 57 57 57 57 57 57 57 57 57 57 57 58 58 58
50 51 52 53 54 55 56 57 57 57 58 58 58 58 58 57 57 56 56 55 55 55 55 56 56 56 56 56 56 56 57 57 57 58 58 58 58 58 58 58 58 58 58 58 58 58 58 58 58 58 59 59
51 52 53 54 55 56 57 57 57 58 58 58 58 58 58 58 57 57 57 57 57 57 58 58 58 58 58 58 58 58 58 58 59 59 59 59 60 59 59 59 59 59 59 59 59 59 59 59 59 60 60 60
52 53 54 54 55 56 57 57 58 58 59 59 59 59 59 59 59 59 59 59 59 59 60 60 60 60 59 59 59 60 60 60 60 60 60 60 60 60 60 60 60 60 60 60 60 60 61 61 61 61 62 62
53 54 54 55 56 57 58 59 59 60 60 60 60 60 60 60 60 60 60 60 61 61 61 61 61 61 61 61 60 61 61 61 61 61 61 61 61 61 61 61 61 61 61 61 61 62 62 62 62 62 63 63
54 55 56 57 58 59 60 60 60 60 61 61 61 61 61 61 61 61 61 61 61 61 61 62 62 62 62 62 62 62 62 62 62 62 62 62 62 62 62 62 62 62 62 62 63 63 63 63 63 63 63 64
56 57 58 59 60 60 61 61 61 61 62 62 62 62 62 62 62 62 62 62 62 62 62 63 63 63 63 63 63 63 63 63 63 63 63 63 63 63 63 63 63 63 63 63 63 63 64 64 64 64 64 64
58 59 60 60 61 61 61 62 62 62 62 62 63 63 63 63 63 63 63 63 63 63 64 64 64 64 64 64 64 65 65 65 65 64 64 64 64 64 64 64 64 64 64 64 64 64 64 64 65 65 65 65
60 60 60 61 62 62 62 63 63 63 63 63 63 64 64 64 64 65 65 65 65 65 65 65 65 66 66 66 66 66 66 66 66 65 65 65 65 64 64 64 64 64 64 64 65 65 65 65 65 65 66 66
61 61 61 62 63 63 63 64 64 64 64 64 64 65 65 65 66 66 66 66 66 66 67 67 67 67 67 67 67 67 67 67 66 66 66 65 65 65 64 64 65 65 65 65 66 66 66 66 66 66 66 67
62 62 63 63 64 64 65 65 65 65 65 65 65 66 66 67 67 67 67 67 67 67 67 67 67 67 67 67 67 67 67 67 67 66 66 65 65 65 65 65 65 66 66 67 67 66 66 66 66 67 67 67
63 64 64 65 65 66 66 66 66 66 66 66 66 67 67 68 68 68 68 68 68 68 68 68 68 68 68 68 67 67 67 67 66 66 66 66 65 65 66 66 67 67 67 67 67 67 67 67 67 67 68 68
65 65 66 66 66 67 67 67 67 67 67 67 67 67 68 68 68 68 68 68 68 68 68 68 68 68 68 68 67 67 67 67 67 67 67 66 66 67 67 68 68 68 68 68 67 67 67 67 67 68 68 69
66 67 67 67 67 67 67 67 68 68 68 68 68 68 68 68 68 68 68 68 68 68 69 69 68 68 68 67 67 67 67 67 68 67 67 67 67 67 68 68 68 68 68 68 68 68 68 68 68 68 67 67
67 67 67 67 67 68 68 68 68 68 69 68 68 68 68 68 68 68 68 68 68 68 68 68 68 68 67 67 67 67 67 67 68 67 67 67 67 68 68 68 68 68 68 68 68 68 68 68 67 66 65 65
67 68 68 68 68 68 69 69 69 69 69 69 69 69 68 68 68 68 68 68 68 68 68 68 67 67 67 67 66 66 67 67 67 67 67 67 68 68 68 68 68 68 68 68 68 68 67 67 65 64 63 62
68 68 69 69 69 69 69 69 69 69 69 69 69 69 69 69 69 69 69 69 69 68 68 67 67 67 66 66 66 66 67 67 67 67 67 67 68 68 68 68 68 68 68 68 67 67 66 65 64 62 61 60
68 69 69 69 69 69 69 69 69 70 70 70 70 70 69 70 69 69 69 69 69 68 68 67 67 66 66 66 66 66 66 67 67 67 67 67 68 68 68 68 68 68 67 67 66 65 64 63 62 61 60 59
68 69 69 69 69 69 69 69 69 70 70 70 70 70 70 70 70 69 69 69 68 68 67 67 66 66 66 65 66 66 66 67 67 67 67 68 68 68 68 68 68 68 67 66 65 64 63 62 62 61 60 59
68 68 68 68 69 69 69 69 69 70 70 70 70 71 70 70 70 69 69 68 68 68 67 66 66 66 66 66 66 66 66 66 67 68 68 68 69 69 69 68 68 67 67 66 64 63 62 61 62 61 61 60
67 67 67 68 68 68 69 69 69 70 70 70 70 70 70 70 70 69 68 68 67 67 66 66 66 66 66 66 66 66 66 67 67 68 69 69 69 69 69 69 68 67 67 66 64 63 63 63 63 63 63 62
66 66 66 67 67 68 68 68 69 69 69 69 69 69 69 69 68 68 68 67 67 67 66 67 67 67 67 66 66 66 67 67 68 69 69 69 70 70 70 69 69 68 67 66 65 65 64 64 65 65 65 65
65 65 65 65 66 66 67 67 68 68 68 68 69 68 68 68 67 67 67 67 67 67 67 67 68 68 67 67 67 67 67 68 69 69 70 70 71 71 71 71 71 70 69 68 68 67 67 67 67 67 67 67
64 64 64 65 66 66 67 67 68 68 68 68 68 68 67 67 67 67 67 67 67 68 68 69 69 69 68 68 68 68 68 69 70 70 71 71 72 72 72 72 72 72 72 71 71 70 70 70 69 69 69 68
64 64 65 66 66 67 68 68 68 68 68 68 68 68 68 67 68 68 68 68 69 69 70 70 70 70 70 70 70 69 70 70 71 72 72 72 73 73 74 75 75 75 75 75 74 74 73 72 72 71 70 69
65 65 66 67 67 67 68 68 69 68 69 69 68 69 69 68 69 69 70 70 71 71 72 72 72 72 72 72 71 71 71 72 73 73 74 74 74 75 76 77 77 78 78 77 77 77 76 75 74 73 72 72
66 67 67 67 67 67 68 69 69 69 69 69 69 69 69 69 70 70 71 72 73 73 73 73 73 73 73 72 72 72 72 73 74 75 75 76 76 77 78 79 79 79 80 80 79 79 78 77 76 75 74 74
67 68 68 67 68 68 69 70 71 71 71 71 70 70 70 70 71 72 73 73 73 74 74 73 73 73 73 73 73 73 74 74 75 76 76 77 78 79 80 81 81 81 81 81 81 80 79 78 78 77 77 75
67 68 68 68 69 69 70 71 71 72 72 72 72 72 72 72 72 73 74 74 75 74 74 74 74 73 73 74 74 75 75 76 76 77 78 78 80 81 82 82 82 82 82 81 81 80 79 79 79 78 78 77
67 67 68 68 69 70 70 71 71 72 72 72 72 72 73 73 74 75 75 76 76 76 75 75 75 74 74 74 75 75 76 77 77 78 79 79 80 81 82 82 82 82 82 81 81 81 80 79 79 79 78 78

ECMWFFLT2_500_spd_087.txt.gz
Wind_Speed
42 43 43 43 44 44 45 46 48 49 50 51 51 51 51 51 51 51 51 51 51 51 51 51 52 52 52 52 53 53 53 53 53 53 52 52 51 51 51 50 50 50 50 50 50 49 49 48 48 48 48 48
42 42 43 43 44 46 47 48 49 50 51 52 52 53 53 53 53 53 53 54 53 54 54 54 54 54 55 55 55 55 55 55 55 55 54 54 53 53 53 53 52 52 52 51 51 51 51 50 50 49 49 49
42 42 43 44 45 46 48 49 50 51 52 53 54 54 55 55 55 55 56 56 56 56 56 56 57 57 57 57 57 57 57 57 57 56 56 56 55 55 55 55 55 54 53 53 53 53 53 53 52 52 51 51
43 43 44 45 46 47 48 50 51 52 53 54 54 55 56 56 56 57 57 58 58 58 58 58 59 59 59 59 59 59 58 58 58 58 57 57 57 57 57 57 57 56 56 55 55 54 54 54 54 54 54 54
45 46 47 47 48 49 50 51 52 53 54 54 55 56 56 57 57 58 58 59 59 60 60 60 60 60 60 60 60 60 60 59 59 59 58 58 59 59 59 59 59 58 58 57 57 57 56 56 56 56 56 56
49 50 50 50 51 52 53 53 54 55 55 56 56 57 57 58 58 59 59 60 60 60 61 61 61 61 61 61 61 61 61 61 60 60 60 60 60 61 61 61 61 60 60 60 60 59 59 59 59 58 58 58
53 54 54 54 55 55 56 56 57 57 57 58 58 59 59 60 60 60 60 60 61 61 62 62 62 62 62 62 62 62 62 62 61 61 61 62 62 62 63 63 63 63 62 62 62 62 61 61 61 61 61 61
57 57 57 57 58 58 59 59 59 59 60 61 61 62 62 62 62 62 63 63 63 63 64 64 64 64 64 64 64 64 64 64 64 63 63 64 64 64 65 65 65 65 65 65 64 64 64 64 63 63 63 63
59 59 59 59 60 60 61 61 61 61 62 63 63 64 65 65 65 66 66 66 66 66 66 67 67 67 67 67 67 67 66 66 66 66 66 66 66 66 67 67 67 67 67 67 67 66 66 66 66 65 65 65
61 60 61 61 62 62 63 63 64 64 65 66 66 67 68 68 68 68 68 68 68 68 69 69 70 70 70 70 70 69 69 69 69 68 69 69 69 68 68 68 68 68 68 68 68 68 68 68 68 68 67 67
63 62 63 64 64 65 66 67 67 67 68 68 69 70 70 70 70 70 70 70 70 70 71 71 71 72 72 71 71 72 72 71 71 71 71 71 71 70 70 70 70 70 70 70 70 69 69 69 69 69 69 69
65 65 66 67 68 69 69 70 70 70 70 70 71 72 72 72 72 72 72 72 72 72 72 73 73 73 73 73 73 73 73 73 73 73 73 73 73 72 72 72 72 72 71 71 71 71 71 71 71 71 70 70
68 68 69 70 72 72 73 73 73 73 73 73 73 73 74 74 74 74 74 74 74 74 74 74 75 75 75 75 75 75 74 74 74 74 74 75 74 74 74 73 73 73 73 73 73 73 73 73 73 72 72 72
70 70 71 72 74 75 76 76 76 75 75 75 75 75 76 76 76 76 76 76 76 76 75 76 76 76 76 76 76 76 76 75 75 75 76 76 75 75 75 75 75 75 75 75 75 75 75 75 75 75 74 74
72 72 73 74 75 76 76 77 77 77 76 76 77 77 77 77 78 78 78 78 78 78 77 77 77 77 77 77 77 77 77 77 77 77 77 77 77 77 76 76 76 76 76 76 76 76 76 76 76 76 76 76
73 74 74 75 76 76 77 77 78 78 78 78 78 79 79 78 78 79 79 79 79 79 79 79 79 79 79 78 78 78 78 79 79 79 79 78 78 78 78 78 78 78 78 77 78 78 77 77 77 77 77 77
74 75 75 76 77 77 78 78 79 79 79 79 79 79 79 79 79 79 80 80 80 81 81 81 81 81 81 80 80 80 80 80 80 80 80 80 80 79 79 79 79 79 79 79 79 79 78 78 78 78 78 78
74 75 76 77 77 78 79 79 79 79 79 79 79 79 80 80 80 80 81 81 81 81 82 82 82 82 82 81 81 81 82 82 81 82 81 81 81 81 81 81 81 81 80 80 80 79 79 79 79 79 79 79
75 76 76 77 78 78 79 80 80 80 80 80 81 81 81 81 81 82 82 82 82 82 83 82 83 83 82 82 82 82 82 83 83 83 82 82 82 82 82 82 82 82 81 81 81 80 80 80 80 80 80 80
75 76 77 77 78 78 79 79 80 80 80 80 81 81 81 82 82 82 83 83 82 83 83 83 83 83 83 82 82 83 83 83 83 84 83 83 83 83 83 83 83 83 82 82 82 81 81 80 80 80 80 80
76 76 77 78 78 79 79 80 80 80 80 80 81 81 82 82 82 82 83 83 82 82 82 82 83 83 83 82 82 82 83 83 84 84 84 84 84 84 84 84 84 84 83 83 82 82 81 81 80 80 80 80
76 77 77 78 79 79 80 80 81 81 81 81 82 82 83 82 83 83 83 83 83 83 83 82 82 82 82 82 82 83 83 83 84 84 84 84 84 84 85 84 84 84 84 84 83 82 82 81 81 80 80 80
76 76 77 78 79 79 80 81 81 81 81 82 82 83 83 83 83 84 84 84 84 84 83 83 83 83 83 83 83 83 84 84 84 84 84 84 84 84 85 85 85 85 85 85 84 83 82 81 80 80 80 80
75 75 76 77 78 79 80 80 81 82 82 82 83 83 84 84 84 84 84 85 85 85 85 85 84 84 84 84 84 84 84 84 84 85 85 85 85 85 84 84 85 85 85 85 84 83 82 81 80 80 80 80
73 74 75 76 77 78 79 80 81 82 83 83 84 84 84 85 85 85 85 85 85 85 85 85 85 85 85 85 85 85 85 85 85 85 85 85 85 85 84 83 83 85 85 85 84 83 82 81 80 80 80 80
70 71 73 74 76 77 78 79 80 81 82 83 84 84 85 85 85 86 85 85 85 85 85 85 85 85 85 85 86 85 85 85 85 85 85 85 85 85 84 83 83 84 85 84 84 83 82 81 80 80 80 80
68 68 69 70 71 73 74 76 77 79 80 81 82 83 84 84 85 85 85 85 85 85 85 84 84 83 83 84 85 85 85 85 85 85 85 85 85 84 84 84 84 84 84 84 84 84 83 82 81 80 80 81
70 70 69 69 68 69 69 70 72 73 75 76 78 79 80 81 82 83 83 83 84 84 84 84 83 83 82 83 84 84 84 84 85 85 85 85 85 84 84 83 83 84 84 84 85 84 84 83 82 81 80 80
69 71 72 72 71 70 69 69 69 70 70 71 72 73 75 76 77 78 79 80 80 81 81 82 82 81 82 82 83 83 84 84 84 84 84 84 84 84 84 83 82 82 83 83 84 85 84 84 83 82 82 81
63 66 69 71 73 73 73 72 71 71 70 70 70 71 72 73 75 75 76 77 78 79 79 79 79 80 80 81 81 82 82 83 83 83 83 83 83 83 84 84 83 82 81 82 83 84 84 84 84 83 83 83
62 63 65 67 70 72 74 75 75 75 74 73 73 73 73 74 75 76 76 77 78 78 78 78 78 78 79 80 80 80 81 81 82 82 82 82 82 82 82 83 83 82 81 81 81 82 83 84 85 85 84 84

ECMWFFLT2_500_spd_090.txt.gz
Wind_Speed
43 44 44 45 46 47 48 49 50 51 51 52 52 52 52 53 54 55 56 56 56 55 55 55 55 54 55 55 55 55 56 56 56 56 56 56 55 55 55 55 55 55 55 54 54 53 53 53 53 52 52 52
43 43 44 45 46 46 47 48 49 50 50 51 52 52 52 53 54 55 56 57 57 57 57 57 56 56 56 57 57 57 57 58 58 58 58 58 57 57 57 57 57 57 57 57 56 55 55 54 54 54 54 53
44 45 46 46 47 47 48 48 49 50 50 51 52 52 52 53 53 54 55 56 57 58 58 58 59 59 59 59 59 59 60 60 60 60 60 60 60 60 59 59 59 59 59 59 58 57 56 56 55 55 55 55
47 47 48 48 49 49 49 50 50 51 51 52 53 53 53 54 54 55 55 56 57 58 59 59 60 60 61 61 62 62 62 62 63 63 63 62 62 62 61 61 61 61 60 60 60 60 58 57 57 56 56 56
49 50 50 50 51 51 51 51 51 52 52 53 54 55 55 56 56 56 57 57 58 59 59 60 61 61 62 63 63 64 64 64 64 64 64 64 64 63 63 63 63 62 62 62 62 61 61 60 59 58 58 58
52 52 53 53 54 54 54 54 54 55 55 56 57 57 58 58 58 59 59 60 60 61 61 61 62 62 63 64 64 65 65 65 65 65 65 65 65 65 64 64 64 64 64 63 63 63 63 63 62 61 60 60
55 55 56 56 56 57 56 57 57 58 59 60 60 61 61 61 61 61 62 62 62 63 63 64 64 64 64 64 65 65 66 66 66 66 66 66 67 66 66 66 66 66 66 65 65 65 65 65 64 64 63 63
57 57 58 58 58 59 59 59 60 61 62 63 63 64 64 64 64 64 65 65 65 65 65 66 66 66 66 66 66 67 67 67 67 68 68 68 68 68 68 68 68 68 67 67 67 67 67 66 66 66 66 65
59 59 60 60 60 61 61 62 62 63 64 65 65 66 67 67 67 67 67 67 67 68 68 68 69 69 69 69 69 69 69 69 70 70 70 70 70 70 70 70 70 69 69 69 69 68 68 68 68 67 67 67
62 63 63 63 63 63 64 64 64 65 66 67 67 68 68 69 69 69 70 70 70 70 70 71 71 71 72 72 72 72 72 72 72 72 72 72 72 72 72 72 72 72 71 71 71 70 70 70 69 69 68 68
65 66 66 66 66 67 67 67 68 68 69 69 70 70 71 71 71 71 72 72 72 72 72 72 73 73 73 74 74 74 74 74 74 74 74 75 75 75 74 74 74 74 74 73 73 73 72 72 71 71 70 70
67 67 68 69 69 69 69 70 70 71 72 72 73 74 74 74 74 74 74 74 74 74 74 74 74 74 74 75 75 75 75 75 75 76 76 76 76 76 76 76 76 76 75 75 75 74 74 74 73 73 72 72
68 69 70 70 71 71 71 71 72 73 73 74 75 76 76 76 77 77 77 76 76 76 76 76 76 76 76 76 76 77 77 77 77 77 77 77 77 78 78 77 77 77 76 76 76 76 76 75 75 75 75 74
70 70 71 71 72 72 72 72 73 73 74 75 76 76 77 78 78 79 79 79 79 79 79 79 79 78 78 78 78 79 79 79 79 79 79 79 79 79 79 79 78 78 78 78 78 77 77 77 77 77 76 76
71 71 72 72 73 73 73 73 74 74 75 75 76 76 77 78 78 79 80 80 80 81 81 81 81 81 81 80 80 81 81 81 82 82 82 81 81 81 81 80 80 80 80 80 80 79 79 79 79 79 78 78
72 72 73 73 73 74 74 74 75 75 76 76 77 77 78 79 79 80 80 81 81 82 82 82 82 82 82 82 82 82 82 83 83 83 83 83 83 83 83 82 82 82 82 81 81 81 81 81 80 80 80 79
73 73 74 74 74 75 75 75 75 76 76 77 77 78 79 80 80 81 81 82 83 83 84 84 84 84 84 84 84 84 84 85 85 85 85 85 85 85 85 84 84 84 84 83 83 83 83 82 82 81 81 80
75 75 76 76 77 77 77 77 77 77 78 78 78 79 79 80 81 82 82 83 83 84 85 85 86 86 86 86 86 86 87 87 87 87 87 87 87 87 87 87 86 86 86 86 85 85 84 84 83 83 82 82
76 77 78 78 79 79 79 79 79 80 80 80 80 80 81 81 82 82 83 83 84 85 85 86 87 87 87 87 88 88 88 88 88 88 88 88 88 88 88 88 88 88 88 88 87 87 86 86 85 84 83 83
77 78 79 80 81 81 82 82 82 82 82 82 82 83 83 83 83 84 84 84 85 86 86 87 87 88 88 89 89 90 90 90 90 90 89 90 90 89 89 90 90 90 89 89 89 89 88 87 87 86 85 85
77 78 79 79 81 82 83 84 84 84 85 85 85 85 85 85 86 86 86 87 87 87 88 88 89 89 89 90 91 91 92 92 91 91 91 91 91 91 90 90 90 91 91 90 90 89 89 89 89 88 87 87
77 78 79 79 80 81 82 83 84 85 86 86 87 87 87 87 88 88 88 89 89 89 90 90 90 90 91 91 92 92 92 93 93 93 93 92 92 92 92 91 91 91 92 91 91 91 90 90 90 89 89 89
74 75 77 78 79 81 82 83 83 84 85 86 87 88 88 89 89 89 89 90 90 91 91 92 92 92 93 93 93 93 94 94 94 94 94 93 93 93 93 93 92 92 92 92 92 92 92 91 91 90 90 90
69 71 72 74 76 78 80 81 83 84 85 85 86 86 87 88 89 90 90 91 91 91 92 92 92 93 93 94 95 95 95 95 94 94 94 94 93 93 93 93 94 94 93 93 93 93 93 92 92 92 92 91
64 65 67 69 71 72 74 77 79 81 83 85 86 86 86 87 88 89 90 91 91 91 92 92 92 92 93 94 94 95 96 96 96 95 95 94 94 94 93 93 94 94 94 94 93 93 93 92 93 93 93 92
61 62 63 64 65 66 68 70 72 75 77 80 82 85 86 87 87 88 88 90 91 91 92 92 92 92 92 92 93 93 94 95 95 95 95 95 95 94 94 94 94 94 95 95 94 94 93 92 92 93 93 93
62 62 63 63 64 64 65 66 67 69 71 73 76 79 82 84 86 87 87 88 88 89 91 91 92 92 92 91 91 92 92 92 93 94 94 94 94 94 94 94 94 94 94 95 95 95 94 93 92 92 93 93
62 63 64 65 65 66 66 66 67 68 69 70 72 74 76 79 82 85 86 87 87 87 87 88 89 90 91 91 92 92 91 91 91 91 91 91 92 92 92 92 92 93 94 94 95 95 95 95 94 92 91 91
62 64 65 66 66 67 68 69 69 70 70 71 72 73 74 76 79 81 83 85 87 88 88 87 87 88 88 89 90 91 91 91 90 90 89 89 89 90 90 90 90 90 91 92 93 94 95 95 95 94 93 91
63 64 66 67 67 68 69 70 71 72 72 73 73 74 75 76 77 79 80 82 84 86 87 88 88 88 88 88 89 89 90 90 90 90 89 89 89 88 88 89 88 87 87 89 91 93 93 94 94 94 94 93
63 64 66 68 69 69 70 70 71 72 73 74 75 75 76 76 77 78 79 80 81 83 84 86 87 88 89 89 90 90 90 89 89 89 89 90 89 89 89 89 88 87 86 85 86 89 91 93 94 94 93 94

ECMWFFLT2_500_spd_096.txt.gz
Wind_Speed
43 44 45 46 47 48 49 50 51 51 52 53 53 54 54 54 55 55 55 55 55 56 56 56 56 57 57 57 57 57 57 57 56 56 56 56 57 57 58 58 58 58 58 58 58 57 57 57 57 56 56 55
46 47 47 48 49 50 51 51 52 53 53 54 54 55 55 55 55 55 55 55 55 56 56 57 57 57 57 58 58 58 59 59 59 58 58 58 59 59 60 61 61 60 60 60 60 60 60 60 59 59 59 59
49 49 50 50 51 52 53 54 54 55 56 56 57 57 57 57 57 57 57 57 57 57 57 57 58 58 58 58 58 59 59 60 60 60 61 61 61 61 62 63 63 63 63 63 63 63 63 62 62 62 62 62
51 51 52 53 53 54 55 55 56 57 58 58 59 59 59 60 60 60 60 60 60 60 59 59 60 60 60 60 59 59 60 60 61 61 62 62 63 63 64 64 65 66 66 65 65 65 65 65 65 65 65 64
53 53 54 54 55 56 56 57 58 58 59 60 60 61 61 62 62 62 63 63 63 63 63 63 63 63 63 63 62 62 62 62 62 62 63 63 64 64 65 66 67 67 68 68 68 67 67 68 68 67 67 67
56 56 56 57 58 58 59 59 60 60 61 61 62 63 63 63 64 64 65 65 65 66 66 66 66 66 66 66 66 65 65 64 64 64 64 64 64 65 66 67 67 68 69 70 70 70 70 70 70 70 70 70
59 59 60 60 61 61 62 62 63 63 63 64 64 65 65 66 66 66 67 67 67 68 68 69 69 69 69 69 69 69 68 68 68 67 67 67 66 66 67 67 68 69 70 71 72 72 72 72 72 72 72 72
62 63 63 64 64 64 65 65 66 66 67 67 67 68 68 68 69 69 69 69 69 70 70 71 71 72 72 72 72 72 71 71 71 71 70 70 70 69 69 69 69 70 71 72 72 73 74 74 74 74 74 74
64 65 66 66 67 67 67 68 68 69 69 70 70 70 71 71 72 72 72 72 72 73 73 73 73 74 74 74 75 75 75 74 74 74 73 73 73 73 73 72 72 72 72 73 73 74 75 75 76 76 76 77
66 66 67 68 68 69 69 70 70 71 71 72 72 72 73 73 74 74 75 75 76 76 76 76 76 76 77 77 77 77 77 77 77 77 77 77 76 76 76 76 75 75 75 75 75 76 76 77 77 78 78 78
66 66 67 68 68 69 70 70 71 72 72 73 74 74 75 75 75 76 76 77 77 78 78 79 79 79 80 80 80 80 80 80 80 80 80 80 80 79 79 79 79 78 78 78 78 78 78 78 79 79 79 80
66 66 67 68 68 69 69 70 71 71 72 73 74 74 75 76 77 77 78 78 79 79 80 80 81 81 82 82 82 83 83 83 83 83 83 83 83 82 82 82 82 82 81 82 81 81 81 81 81 81 81 81
67 67 68 69 69 70 70 71 71 72 72 73 74 74 75 76 77 78 79 79 80 81 81 82 82 83 83 84 84 85 85 85 85 85 85 85 85 85 85 85 85 85 84 84 84 84 84 84 84 84 84 84
68 69 69 70 71 71 72 73 73 74 74 75 75 76 76 77 77 78 79 80 80 81 82 83 83 84 85 85 86 86 87 87 87 87 87 87 87 87 87 88 88 88 87 87 87 87 87 87 87 87 87 87
69 69 70 71 72 72 73 74 74 75 76 76 77 78 78 79 79 80 80 81 81 82 83 84 84 85 86 86 87 87 88 88 89 89 89 90 89 90 89 90 90 90 90 90 90 90 90 89 89 90 90 90
66 67 67 68 68 69 70 71 72 73 74 74 75 76 78 79 80 80 81 82 83 83 84 85 86 86 87 88 88 89 89 89 90 90 91 91 91 91 92 91 91 92 92 92 92 93 93 93 92 92 92 92
61 61 61 62 63 63 64 65 65 66 67 68 69 71 72 73 75 76 78 79 81 82 84 85 86 87 88 89 90 90 91 91 92 92 92 92 93 93 93 93 93 93 93 93 93 94 95 95 95 95 95 94
54 54 55 55 56 57 57 58 59 59 60 61 62 63 64 66 68 69 71 73 74 76 78 80 83 85 87 89 90 92 93 93 94 94 94 94 94 94 95 95 95 95 95 95 95 95 95 96 97 97 97 97
49 49 49 50 50 51 51 52 53 53 54 55 56 57 58 59 61 62 64 65 67 69 71 73 75 77 80 83 86 89 91 93 95 96 96 97 96 96 96 96 97 97 97 97 97 96 96 96 97 97 98 99
45 46 46 46 47 47 48 48 48 49 49 50 51 52 53 54 55 57 58 60 61 63 64 66 68 69 71 74 76 80 84 88 91 95 97 98 99 99 99 99 98 98 99 99 98 98 98 98 98 98 98 99
45 45 46 46 47 47 47 47 48 48 48 49 49 50 51 51 52 53 54 56 57 59 60 62 63 65 66 68 70 72 74 78 82 87 91 95 98 101 102 102 101 101 101 100 100 100 100 100 100 99 99 99
47 47 48 48 49 49 50 50 50 50 51 51 52 52 52 52 53 53 54 55 56 57 58 60 61 63 65 66 67 68 70 71 74 77 81 85 90 96 100 102 104 104 104 103 102 101 101 101 101 101 101 101
49 50 50 51 51 52 52 53 53 53 54 54 55 55 55 56 56 56 56 56 57 58 59 60 62 63 65 66 68 69 70 71 71 73 75 78 81 86 92 97 101 104 105 106 105 104 103 102 102 102 103 103
52 53 53 54 54 54 55 55 56 56 56 57 57 58 58 59 59 59 59 59 60 60 61 62 64 65 66 67 69 70 71 72 73 73 74 75 77 80 84 89 95 100 103 105 106 106 105 104 104 103 104 104
54 55 56 56 57 57 58 58 59 59 59 60 60 61 61 62 62 62 62 62 62 63 64 65 66 67 68 70 71 72 73 74 75 76 76 77 78 79 81 84 89 94 98 102 104 105 105 105 106 105 105 104
56 57 58 58 59 59 60 60 61 62 62 63 63 63 64 64 65 65 65 65 65 65 66 67 69 70 71 72 73 74 75 76 77 78 79 80 80 81 82 83 85 89 93 97 100 103 103 103 104 106 106 106
57 58 59 60 60 61 61 62 62 63 64 64 65 66 66 66 67 67 67 67 67 68 69 70 71 72 73 75 76 77 77 78 80 80 82 83 83 84 84 84 85 87 89 92 96 99 101 102 102 102 104 105
58 59 60 61 61 62 62 63 63 64 65 65 66 67 67 68 68 69 69 70 70 71 72 73 74 75 76 77 78 79 80 81 82 83 84 86 87 87 86 86 85 86 87 89 92 94 97 100 101 100 100 100
59 59 61 61 62 63 63 64 64 64 65 66 67 68 69 69 69 70 71 72 72 73 74 75 76 77 78 79 80 81 82 83 84 85 87 88 89 89 88 87 86 86 86 87 89 91 93 95 97 99 100 99
59 60 61 62 63 63 64 64 65 66 66 67 68 69 70 70 70 71 72 73 73 74 75 77 77 79 80 81 82 83 84 85 86 87 89 90 90 90 89 87 86 85 85 85 86 88 89 92 93 95 97 98
60 61 62 62 63 64 64 65 66 66 67 68 69 70 70 71 71 72 73 73 74 75 77 78 79 80 81 82 83 85 86 87 89 90 91 91 91 90 88 87 85 84 83 83 84 85 86 88 90 91 92 95

ECMWFFLT2_500_spd_102.txt.gz
Wind_Speed
38 38 39 40 40 41 42 42 43 43 44 45 45 46 47 47 48 49 49 50 50 51 51 52 52 53 53 54 54 54 54 54 54 54 54 55 55 56 56 55 55 55 55 55 55 55 55 55 55 55 54 54
40 40 41 41 42 43 43 44 45 45 46 46 47 48 48 49 50 50 51 51 52 53 53 53 54 54 54 55 55 55 56 56 56 56 56 56 56 57 57 57 57 56 56 56 56 56 56 57 57 57 57 56
42 42 43 44 44 45 46 47 47 48 48 49 49 50 51 51 52 53 53 54 54 55 55 56 56 56 57 57 57 57 57 58 58 58 58 57 58 58 58 58 59 58 58 58 58 58 58 58 58 58 59 59
44 45 46 47 47 48 49 49 50 51 51 52 52 53 53 54 55 55 56 56 57 58 58 59 59 59 59 60 60 60 60 60 60 60 60 60 60 60 60 60 60 60 60 60 59 59 59 59 59 60 60 60
47 48 49 49 50 51 52 52 53 54 54 55 55 56 56 57 57 58 58 59 60 60 61 61 62 62 63 63 63 63 63 63 63 63 63 63 63 63 63 63 63 63 62 62 62 62 61 61 61 61 61 61
49 50 51 52 53 53 54 55 56 56 57 58 58 59 59 60 60 60 61 61 62 63 63 64 64 65 65 66 66 66 67 67 67 67 66 66 66 66 66 66 65 65 65 65 64 64 64 64 63 63 63 63
51 52 53 54 54 55 56 57 57 58 59 59 60 61 61 62 62 63 63 64 64 65 65 66 66 67 67 68 68 69 69 69 70 70 70 70 70 69 69 69 69 69 69 68 68 67 67 67 66 66 66 66
53 54 54 55 56 56 57 58 58 59 60 61 61 62 63 63 64 65 65 66 66 67 67 68 68 69 69 70 70 71 71 71 72 72 72 72 73 72 72 72 72 72 72 72 72 71 71 70 70 69 69 68
54 55 55 56 57 57 58 58 59 60 61 61 62 63 64 64 65 66 66 67 67 68 69 69 70 70 71 71 72 72 73 73 73 74 74 75 75 75 75 75 75 75 75 75 75 75 75 74 74 73 73 72
55 56 56 57 58 58 59 60 60 61 62 62 63 64 64 65 66 66 67 68 68 69 70 70 71 71 72 73 73 74 74 75 75 75 76 76 76 77 77 77 77 77 77 77 77 77 77 78 77 77 76 76
56 56 57 58 58 59 60 60 61 61 62 63 63 64 64 65 65 66 67 68 68 69 70 71 71 72 73 73 74 75 75 76 76 77 77 77 78 78 78 79 79 79 80 80 80 80 80 80 80 80 80 79
55 55 56 56 56 57 57 58 58 59 60 60 61 61 62 63 63 64 65 66 67 68 68 69 70 71 72 72 73 74 75 76 77 77 78 78 79 79 80 80 81 81 81 81 82 82 82 82 83 83 83 83
51 51 51 51 51 51 52 52 53 53 54 54 55 55 56 57 58 59 60 61 62 63 64 65 66 67 68 69 70 71 72 73 74 76 77 78 79 79 80 81 82 82 83 83 83 83 84 84 84 85 85 85
44 44 44 44 44 44 45 45 45 46 47 47 48 49 49 50 51 52 53 54 55 56 57 58 60 61 63 64 65 66 68 69 70 71 73 74 75 77 78 79 80 81 83 83 84 85 85 86 86 86 86 87
38 39 39 39 40 40 41 42 42 43 44 45 45 46 47 48 49 49 50 51 51 52 53 54 55 56 57 58 59 61 62 63 65 66 67 68 70 71 73 75 76 78 79 81 82 84 85 86 87 87 88 88
37 38 38 39 40 41 42 43 44 45 46 47 47 48 49 50 50 51 52 52 53 53 53 54 54 55 55 56 57 57 58 59 60 61 62 63 64 66 67 68 70 72 74 75 77 79 81 83 85 86 88 89
39 40 41 42 43 43 44 45 46 47 48 48 49 50 51 52 52 53 54 54 55 55 56 56 56 57 57 58 58 58 59 59 60 60 61 61 62 63 64 64 65 66 68 69 71 73 75 77 80 82 84 86
40 41 42 43 44 44 45 46 47 48 48 49 50 51 51 52 53 54 54 55 55 56 56 57 58 58 59 59 60 60 61 61 62 62 62 63 63 64 64 64 65 65 65 66 67 68 70 71 73 76 78 80
41 42 43 43 44 45 46 46 47 48 48 49 50 51 52 52 53 54 55 55 55 56 56 57 57 58 59 59 60 61 61 62 63 64 64 65 65 65 66 66 67 67 67 67 67 67 68 68 69 70 72 74
42 42 43 44 45 45 46 47 48 49 49 50 51 52 53 53 54 55 55 56 56 56 57 57 58 58 59 59 60 61 61 62 63 64 65 66 66 67 68 68 68 69 69 69 70 70 70 70 69 69 70 70
42 43 44 45 46 47 48 48 49 50 51 51 52 53 54 54 55 56 56 57 57 57 58 58 59 59 60 60 61 61 62 62 63 64 65 66 67 68 69 69 70 70 71 71 72 72 72 72 72 72 71 71
44 45 46 47 48 49 49 50 51 52 52 53 54 54 55 56 56 57 57 58 58 59 59 60 60 60 61 61 62 62 62 63 64 64 65 66 67 68 69 69 70 71 72 72 73 73 74 75 75 75 75 75
46 47 48 49 50 51 51 52 53 53 54 54 55 55 56 57 57 58 59 59 60 60 61 61 61 62 62 62 63 63 63 64 64 65 66 67 68 68 69 70 71 72 72 73 73 74 75 76 77 77 77 77
48 49 50 51 52 52 53 54 54 55 55 55 56 56 57 57 58 59 60 60 61 62 62 62 62 63 63 63 64 64 64 65 65 66 67 68 69 70 71 71 72 73 73 74 74 75 75 76 77 78 79 79
51 52 52 53 53 54 54 55 55 56 56 56 57 57 58 58 59 59 60 61 62 62 63 63 63 64 64 64 64 64 64 65 65 66 67 68 70 71 72 73 73 74 75 75 76 76 76 77 78 78 79 80
53 53 54 55 55 56 56 56 57 57 57 57 58 58 58 59 60 60 61 62 62 63 63 64 64 64 65 65 65 65 65 65 66 66 67 69 70 71 72 73 74 75 76 77 77 77 77 78 78 79 79 80
54 55 56 56 57 57 57 57 57 58 58 58 59 59 60 60 61 61 62 62 63 63 64 64 64 65 65 66 66 66 66 66 67 67 68 69 70 71 72 74 75 76 77 78 78 78 79 79 79 80 80 79
55 56 57 57 58 58 58 58 58 59 59 60 60 60 61 61 62 62 63 63 63 64 64 64 65 65 66 66 67 67 68 68 68 68 69 69 70 72 73 74 75 75 77 78 79 79 79 80 80 80 81 80
56 57 58 58 58 59 59 59 59 60 61 61 61 61 62 62 62 63 63 64 64 64 65 65 66 66 66 67 67 68 69 69 69 70 70 71 72 73 74 75 75 76 76 77 78 79 80 80 81 81 82 82
56 57 57 58 59 59 59 60 61 62 62 62 62 62 62 63 63 63 64 64 64 65 65 66 66 67 67 68 68 69 69 70 70 71 72 72 73 74 75 76 76 77 77 77 78 79 79 81 81 82 83 84
56 56 57 58 59 59 60 61 62 63 63 63 62 62 63 63 63 63 64 64 64 65 65 66 66 67 67 68 69 69 70 70 71 72 72 73 74 75 76 76 77 77 78 78 78 79 79 80 81 82 83 85

ECMWFFLT2_500_spd_105.txt.gz
Wind_Speed
37 37 38 38 39 40 40 41 41 42 43 43 44 44 45 46 46 47 47 48 48 49 49 49 50 50 50 51 51 51 51 52 52 53 53 53 53 53 53 53 53 53 53 53 54 54 54 54 54 54 54 54
37 38 39 40 40 41 42 43 43 44 44 45 45 46 47 47 48 48 49 49 50 50 51 51 52 52 52 53 53 53 53 53 54 54 54 55 55 55 55 55 55 54 54 54 54 55 55 56 56 56 56 56
39 40 41 41 42 43 44 44 45 46 46 47 48 48 49 49 50 50 51 52 52 53 53 53 54 54 54 55 55 55 56 56 56 56 56 57 57 57 57 57 57 57 56 56 56 56 56 56 57 57 57 57
42 42 43 44 45 46 46 47 47 48 49 49 50 51 51 52 53 53 54 54 55 55 56 56 57 57 57 58 58 58 58 58 59 59 59 59 60 60 60 60 60 60 59 59 59 58 58 58 58 58 58 58
44 45 46 47 48 48 49 49 50 51 51 52 53 53 54 54 55 56 56 57 58 58 59 59 60 60 60 61 61 61 61 62 62 62 62 62 62 62 63 63 63 63 62 62 62 62 61 61 61 60 60 60
47 47 48 49 50 50 51 52 52 53 54 54 55 55 56 57 57 58 58 59 60 60 61 61 62 62 63 63 63 64 64 64 64 65 65 65 65 65 65 66 66 66 66 66 65 65 65 65 64 64 63 63
48 49 50 50 51 52 52 53 54 54 55 56 56 57 58 58 59 59 60 60 61 62 62 63 63 64 64 65 65 66 66 66 67 67 67 67 68 68 68 68 68 69 69 69 68 68 68 68 68 67 67 67
49 50 50 51 52 53 53 54 55 55 56 56 57 58 58 59 60 60 61 61 62 62 63 63 64 65 65 66 66 67 67 68 68 69 69 69 69 70 70 70 71 71 71 71 71 71 71 71 70 70 70 70
50 50 51 52 52 53 54 54 55 56 56 57 57 58 59 59 60 60 61 62 62 63 63 64 65 65 66 66 67 67 68 68 69 69 70 70 71 71 71 72 72 73 73 73 73 74 74 73 73 73 73 72
50 51 52 52 53 53 54 54 55 56 56 57 57 58 58 59 59 59 60 60 61 62 62 63 63 64 65 66 66 67 67 68 69 69 70 70 71 71 72 72 73 73 74 74 75 75 76 76 76 76 75 75
51 51 52 52 53 53 53 54 54 54 54 54 54 54 55 54 54 55 55 55 56 56 57 58 58 59 60 61 62 63 64 65 66 67 68 69 69 70 71 72 73 73 74 75 75 76 76 77 77 77 78 78
50 50 50 50 50 50 50 50 49 49 49 49 49 49 49 49 49 49 49 50 50 51 51 52 53 54 54 55 56 57 58 59 61 62 63 64 65 66 68 69 70 71 72 73 74 75 76 77 77 78 78 79
47 46 46 45 44 44 44 43 43 43 43 44 44 44 45 45 46 46 47 47 48 49 49 50 51 51 52 53 54 55 56 56 57 58 59 60 61 62 63 64 65 66 68 69 71 72 73 75 76 77 78 79
41 40 40 40 40 40 41 41 41 41 42 43 43 44 45 45 46 46 47 48 48 49 50 50 51 52 52 53 54 55 55 56 57 58 59 59 60 61 61 62 63 63 64 65 66 67 69 70 72 74 75 77
36 37 37 38 39 40 41 41 42 42 43 43 44 45 45 46 46 47 48 48 49 49 50 51 51 52 53 53 54 55 56 56 57 58 59 59 60 61 61 62 62 63 64 64 65 65 66 66 67 69 70 72
36 37 38 39 40 41 41 42 42 43 43 43 44 44 45 46 46 47 48 49 50 50 51 52 52 53 54 54 55 56 56 57 58 58 59 60 60 61 62 62 63 63 64 64 65 65 65 66 66 67 67 68
38 39 39 40 41 41 42 42 42 43 43 43 44 45 46 46 47 48 49 50 51 51 52 53 53 54 54 55 56 57 57 58 59 59 60 61 61 62 62 63 63 64 64 65 65 66 66 66 67 67 67 67
39 39 40 40 41 42 42 42 43 43 43 44 45 46 47 48 49 50 51 51 52 53 54 54 55 55 56 56 57 58 59 60 60 61 61 62 62 63 63 63 64 64 65 65 66 66 66 67 67 68 68 68
39 39 40 41 41 42 42 43 43 44 45 45 46 48 49 50 51 52 53 53 54 55 55 56 57 57 58 58 59 60 60 61 62 62 63 63 64 64 64 64 65 65 65 66 66 67 67 67 68 68 68 69
39 40 41 42 42 43 44 44 45 46 46 47 48 50 51 52 53 54 55 56 56 57 57 58 58 59 60 60 61 61 62 62 63 64 64 65 65 65 66 66 66 67 67 67 67 67 68 68 68 69 69 69
40 42 43 43 44 45 46 46 47 48 49 50 51 52 53 54 55 56 57 57 58 58 59 59 60 60 61 61 62 62 63 63 64 65 65 66 66 67 67 67 67 68 68 68 68 68 68 69 69 69 69 70
43 44 45 46 47 47 48 49 49 50 51 52 54 54 55 56 57 58 59 59 59 60 60 61 61 61 62 63 63 63 64 64 65 66 66 67 67 68 68 69 69 69 69 69 69 68 68 69 69 69 70 70
46 47 47 48 49 49 50 50 51 52 54 55 56 57 58 58 59 60 60 60 60 61 61 61 62 62 63 63 64 64 65 65 66 66 67 68 68 69 69 70 70 70 70 70 70 69 69 69 69 69 70 70
48 48 48 49 50 50 51 52 53 55 56 57 58 59 59 60 61 61 61 61 61 61 62 62 63 63 64 64 64 65 65 66 66 67 68 68 69 69 70 71 71 71 72 71 71 71 70 70 70 69 69 70
48 48 49 50 51 52 53 54 56 57 58 58 59 59 60 60 61 60 60 61 61 62 62 63 64 64 65 65 65 66 66 67 67 68 68 69 69 70 70 71 72 72 73 73 73 73 72 72 72 71 70 70
49 50 51 52 53 54 55 56 57 58 58 59 59 59 60 60 60 60 60 61 61 62 63 63 64 64 65 66 66 67 67 67 68 68 69 69 70 71 71 71 72 72 74 74 74 74 74 74 74 74 73 72
50 52 53 54 55 56 56 56 57 58 58 57 58 59 60 60 60 60 60 61 62 62 63 64 64 65 65 66 67 67 67 67 68 68 69 70 70 71 71 72 72 72 73 75 75 75 76 76 76 76 76 75
52 54 55 54 55 55 55 55 56 56 57 57 58 59 59 60 60 60 61 62 62 63 64 64 65 65 66 66 67 67 67 67 67 68 69 69 70 70 71 72 72 72 72 73 75 76 76 76 76 76 77 77
53 54 55 54 54 54 54 54 55 55 56 58 59 59 59 60 60 60 61 62 63 64 64 65 65 66 66 67 67 67 68 68 68 68 68 69 70 70 71 71 72 73 73 73 74 75 76 76 76 77 77 77
53 54 55 55 54 54 54 55 54 55 57 59 59 59 60 60 60 61 62 63 64 64 65 65 65 66 67 67 67 67 68 68 68 68 69 69 70 70 71 71 72 73 73 73 73 74 75 76 77 77 77 77
52 53 55 56 56 56 56 55 55 56 58 59 59 60 60 61 61 62 63 63 64 65 65 65 66 66 67 67 67 68 68 69 69 69 69 70 70 70 71 71 71 72 73 73 73 73 73 74 76 76 77 78

ECMWFFLT2_500_spd_108.txt.gz
Wind_Speed
36 36 37 37 38 38 39 40 40 40 41 41 42 42 43 43 44 44 45 45 45 46 46 47 47 47 48 48 48 48 49 49 49 49 49 49 49 49 49 49 49 50 50 51 51 52 52 52 52 52 52 52
36 37 37 38 39 39 40 40 41 41 42 42 43 43 44 44 45 45 46 46 47 47 48 48 48 49 49 49 50 50 50 51 51 51 51 51 51 51 51 51 51 51 52 52 52 53 53 53 54 54 54 54
37 37 38 39 40 40 41 42 42 43 43 44 44 45 45 46 47 47 48 48 48 49 49 50 50 51 51 51 52 52 52 53 53 54 54 54 54 54 54 54 54 54 54 54 54 54 55 55 55 55 55 55
39 39 40 41 41 42 43 44 44 45 45 46 47 47 48 48 49 49 50 50 51 51 52 52 53 53 54 54 54 54 55 55 55 56 56 57 57 57 57 57 57 57 57 57 57 57 57 57 57 57 57 57
41 42 42 43 44 44 45 46 47 47 48 48 49 50 50 51 51 52 52 53 53 54 54 55 55 56 56 57 57 57 58 58 58 58 59 59 60 60 60 60 60 60 60 60 60 60 60 60 60 60 60 59
43 44 44 45 46 46 47 48 48 49 50 50 51 51 52 52 53 54 54 55 55 56 56 56 57 57 58 58 59 59 60 60 61 61 61 61 62 62 62 62 62 62 62 62 62 62 62 62 63 63 63 63
45 45 46 47 47 48 48 49 50 50 51 51 52 52 53 53 54 54 55 56 56 57 57 58 58 59 59 60 60 61 61 62 62 63 63 63 64 64 64 65 65 65 65 65 64 64 64 65 65 65 65 66
46 47 47 48 48 49 49 50 50 51 51 52 52 53 53 54 54 55 55 56 56 57 57 58 59 59 60 60 61 61 62 62 63 63 64 64 65 65 65 66 66 66 67 67 67 67 66 66 66 67 67 67
47 47 48 48 49 49 50 50 51 51 52 52 52 53 53 54 54 55 55 55 56 56 56 57 58 58 59 59 60 60 61 61 62 62 63 63 64 64 65 65 66 66 67 67 68 68 68 68 68 68 68 68
47 48 48 49 49 50 50 51 51 51 52 52 52 53 53 53 53 53 53 53 53 53 53 54 54 54 55 55 56 57 57 58 59 59 60 61 61 62 62 63 63 64 65 65 66 67 68 68 69 69 69 69
48 48 49 49 49 50 50 50 50 50 51 51 50 50 50 50 49 49 49 49 49 49 49 49 50 50 50 51 51 52 53 53 54 55 56 57 58 58 59 60 60 61 61 62 63 64 65 65 66 67 68 69
48 48 49 49 49 49 49 48 48 47 47 47 46 46 46 46 46 46 46 46 47 47 47 48 48 48 49 49 50 50 50 51 51 52 53 53 54 55 56 57 58 58 59 59 60 60 61 62 63 64 65 66
48 48 48 47 47 46 45 45 44 43 43 43 43 44 44 44 45 45 46 46 46 47 47 48 48 48 48 48 49 49 49 50 50 51 51 52 52 53 54 55 56 56 57 58 58 59 59 60 61 61 62 63
46 45 44 43 43 42 41 41 41 41 41 42 43 43 44 44 45 45 45 46 46 46 46 47 47 47 47 48 48 48 49 49 50 51 51 52 52 53 53 54 55 56 56 57 58 58 59 60 60 61 61 62
42 41 40 40 40 40 40 41 41 41 42 42 43 44 44 44 44 44 45 45 45 45 46 46 46 47 47 48 48 49 49 50 50 51 52 52 53 53 54 54 55 56 56 57 58 58 59 60 60 61 61 62
38 38 39 39 40 40 41 42 42 42 43 43 43 44 44 44 44 44 45 45 45 45 46 46 47 47 48 48 49 50 50 51 51 52 53 53 54 54 55 55 56 57 57 58 58 59 59 60 60 61 61 62
38 38 39 40 40 41 42 42 42 42 42 42 43 43 43 44 44 45 45 46 46 46 47 47 48 48 49 50 51 51 52 53 53 54 55 55 55 56 57 57 58 58 59 59 60 60 60 61 61 62 62 63
39 39 40 40 40 41 42 42 42 42 42 43 43 44 44 45 46 46 47 47 47 48 48 49 50 51 52 52 53 54 54 55 56 56 57 57 58 58 59 59 60 60 61 61 62 62 62 62 63 63 63 64
40 40 40 41 40 41 43 42 43 43 43 44 45 46 47 47 47 48 48 49 49 50 51 52 53 53 54 55 56 56 57 58 58 59 59 60 60 60 61 61 62 62 63 63 64 64 64 64 65 65 65 65
40 40 41 41 41 42 44 44 44 45 45 46 47 48 49 50 50 50 51 51 52 53 53 54 55 56 57 58 59 59 60 60 61 61 61 62 62 63 63 64 64 65 65 65 66 66 66 66 66 66 66 67
41 41 41 42 43 44 46 46 46 47 48 49 50 50 51 52 52 52 53 53 54 55 56 57 58 59 60 61 61 62 62 62 63 63 63 63 64 64 65 65 66 67 67 67 68 68 68 68 68 68 68 68
42 42 43 45 46 47 48 49 49 50 51 52 52 52 53 53 53 54 55 56 57 58 59 60 61 62 62 63 63 63 63 63 63 63 64 64 65 65 66 66 67 68 68 69 69 69 70 70 70 70 70 70
44 45 46 47 48 49 50 51 52 52 53 53 53 53 53 54 55 56 57 58 59 60 61 62 63 63 64 64 64 64 64 64 64 64 65 65 66 66 66 67 67 68 69 70 70 70 71 71 72 72 71 71
46 47 48 49 50 51 51 52 53 53 53 54 54 54 54 56 57 58 60 60 61 62 63 63 64 64 64 64 64 64 64 64 64 65 65 66 66 67 67 67 67 68 69 70 70 71 72 72 73 73 73 73
47 48 49 50 51 51 52 52 53 53 54 55 55 56 57 59 60 60 61 62 62 62 63 63 64 64 64 64 64 65 65 65 65 66 66 66 67 67 67 67 67 68 69 70 70 71 71 72 73 73 73 73
47 49 50 51 51 52 53 53 54 55 56 57 57 58 59 60 61 61 61 61 61 61 62 63 63 64 64 64 65 65 65 65 66 66 67 67 67 67 67 67 67 68 69 69 70 71 71 72 73 73 74 73
48 49 50 51 52 53 54 54 55 56 57 57 58 59 59 60 61 61 61 61 61 61 62 63 63 64 64 64 65 65 65 66 66 67 67 67 68 68 68 68 67 68 68 69 70 71 71 72 72 73 74 74
48 48 49 51 52 54 55 55 56 57 57 57 58 59 60 61 61 61 60 61 61 62 62 63 63 64 64 64 65 65 65 66 66 67 67 68 68 69 69 69 68 68 68 68 69 70 71 72 72 73 74 74
47 48 49 50 52 53 54 55 56 56 56 57 58 59 60 61 61 61 61 61 62 62 63 63 64 64 64 65 65 66 66 66 66 67 68 68 69 69 69 69 69 69 68 68 68 69 70 72 72 73 73 74
46 47 48 49 50 52 52 53 54 55 55 57 57 58 60 61 62 61 61 62 62 63 63 64 64 64 65 65 66 67 67 67 67 67 68 68 69 70 70 70 69 69 69 68 68 69 70 72 73 73 74 74
44 45 46 48 49 50 50 51 52 53 55 56 56 57 59 60 61 62 62 62 63 63 64 65 65 66 66 67 67 68 68 68 68 68 68 69 70 70 70 70 70 70 70 70 69 69 70 71 72 73 74 75

ECMWFFLT2_500_spd_114.txt.gz
Wind_Speed
34 35 35 36 37 37 37 38 38 39 39 40 40 41 41 41 41 41 41 41 41 41 41 42 42 42 42 43 43 43 44 44 44 44 44 44 44 45 45 46 46 47 47 47 47 47 47 47 47 47 47 47
35 36 37 38 38 38 39 39 40 40 41 41 41 41 41 41 41 41 41 41 42 42 43 43 43 43 44 44 44 44 45 45 45 44 45 45 45 45 46 46 47 47 48 48 48 48 48 48 48 48 48 48
37 37 38 39 39 40 40 40 40 40 40 41 41 41 41 41 41 41 42 42 42 43 43 44 44 44 45 45 45 45 46 46 46 46 46 46 46 46 47 47 47 48 48 49 49 49 49 49 49 50 49 49
39 38 38 39 39 40 40 40 40 40 40 41 41 41 42 42 42 42 43 43 44 44 44 45 45 46 46 46 47 47 47 47 48 48 48 48 48 49 49 49 49 50 50 50 51 51 51 51 51 52 52 52
39 39 38 38 39 39 39 39 40 40 40 41 41 42 42 43 43 44 44 45 45 46 46 47 47 48 48 49 49 49 49 50 50 50 50 51 51 51 51 51 52 52 52 52 53 53 53 54 54 54 54 54
39 39 38 39 39 39 40 40 41 41 42 42 42 43 44 44 45 46 46 47 48 48 49 49 49 50 50 51 51 51 51 52 52 52 52 53 53 53 53 53 53 54 54 54 54 55 55 55 55 56 56 56
38 38 39 39 40 41 41 42 43 43 43 44 44 44 45 46 46 47 48 49 49 50 50 51 51 51 52 52 53 53 53 53 53 54 54 54 54 54 55 55 55 55 55 55 55 56 56 56 56 57 57 57
40 40 41 41 42 43 43 44 44 45 45 46 46 46 46 47 48 48 49 50 50 51 51 52 52 52 53 53 54 54 54 55 55 55 55 55 55 55 56 56 56 56 56 56 56 57 57 57 57 58 58 58
41 42 42 43 43 44 45 45 46 46 46 47 47 47 48 48 49 49 50 50 51 51 52 52 52 53 53 53 54 54 55 55 56 56 56 56 56 56 56 57 57 57 57 57 57 57 57 57 57 58 58 58
42 42 43 44 44 45 46 46 46 47 47 47 48 49 49 49 50 50 50 51 51 52 52 52 53 53 53 54 54 55 55 55 56 56 56 56 56 56 56 56 56 56 56 56 56 56 56 56 56 56 56 57
43 44 45 45 45 46 46 46 47 48 48 48 49 49 50 50 50 50 51 51 51 52 52 53 53 53 53 54 54 54 54 55 55 55 55 55 55 55 55 54 54 54 54 54 54 54 54 54 54 55 55 55
44 45 45 45 46 46 46 47 47 48 48 49 49 49 50 50 50 51 51 51 51 52 52 52 52 52 52 52 53 53 53 53 53 53 53 53 53 53 53 53 53 53 53 53 53 53 54 54 54 54 54 54
45 45 45 46 46 46 46 47 47 48 48 48 48 49 49 50 50 50 50 50 50 50 50 50 50 50 50 50 50 51 51 51 51 51 51 51 52 52 52 53 53 53 53 53 53 53 53 53 53 53 53 53
45 45 45 46 46 46 47 47 47 47 47 47 47 47 47 48 48 48 48 48 47 47 47 48 48 48 48 49 49 50 50 50 51 51 51 52 52 52 53 53 53 53 53 53 53 53 53 52 52 52 52 52
45 45 46 46 46 46 47 46 46 45 45 45 45 45 44 45 45 45 45 45 46 46 46 47 48 48 49 49 49 50 50 51 51 51 51 52 52 52 52 52 53 53 53 53 53 53 53 52 52 51 51 51
45 45 46 45 45 44 44 43 43 43 43 43 43 43 43 43 44 44 45 45 46 47 47 48 49 49 49 49 50 50 50 50 51 51 51 51 51 52 52 52 52 52 52 52 52 52 52 52 52 51 51 51
43 43 43 42 42 41 41 41 41 42 42 42 43 43 43 43 44 45 46 46 47 48 49 49 49 49 49 49 49 49 50 50 50 50 51 51 52 52 52 53 53 53 53 53 52 52 52 52 52 52 52 52
40 40 40 40 40 40 41 41 41 42 42 43 43 44 44 44 45 46 46 47 47 48 49 49 49 49 49 49 49 49 50 50 51 51 52 52 53 53 54 54 54 54 53 53 53 53 53 53 53 53 53 54
39 39 39 39 40 40 41 41 41 42 42 43 43 44 44 44 45 45 46 46 47 48 49 49 49 49 49 50 50 51 52 52 53 53 54 54 54 55 55 55 55 54 54 54 54 54 54 55 55 56 56 57
38 38 39 39 40 40 41 41 41 41 41 42 43 43 44 45 45 45 46 47 48 49 49 50 50 51 51 52 52 53 53 54 54 55 55 55 55 55 55 55 55 55 55 55 56 56 57 57 58 59 60 60
38 39 39 40 40 41 41 41 41 41 41 42 43 44 46 46 46 47 48 49 49 50 51 51 52 52 52 52 53 53 53 54 54 54 54 54 54 54 55 55 55 56 57 57 58 59 60 60 61 62 62 63
39 39 39 40 40 41 41 41 42 42 42 43 45 46 47 47 48 48 49 49 50 50 51 51 51 52 52 52 52 53 53 53 53 54 54 54 55 55 56 56 57 58 59 60 61 62 62 63 63 64 64 64
40 40 40 41 41 42 42 42 43 43 43 44 45 46 47 47 47 48 49 49 50 51 51 52 52 52 52 52 53 53 53 54 54 54 54 55 55 56 57 58 59 60 61 62 63 63 64 64 65 65 65 66
40 40 41 41 41 41 41 42 42 43 43 43 44 45 46 46 47 48 49 50 50 51 51 52 51 51 51 51 52 52 52 53 53 53 53 54 54 55 56 57 58 59 60 61 62 63 63 64 64 64 65 65
39 39 39 39 40 40 41 41 41 41 42 42 43 44 45 45 46 48 49 49 49 49 49 49 49 49 49 49 49 50 50 50 50 50 51 51 52 53 53 54 56 57 58 59 60 60 61 61 62 62 63 63
36 36 37 38 38 39 39 39 39 40 40 41 42 42 43 44 46 46 47 47 46 46 46 46 46 47 46 46 47 47 47 48 48 48 49 49 50 51 52 53 54 55 56 57 58 59 60 60 61 61 62 63
34 35 36 36 36 36 36 37 37 38 39 39 39 40 41 43 44 44 44 44 44 43 44 44 45 45 45 45 46 47 47 47 48 48 49 49 49 50 51 52 53 54 55 56 57 58 59 60 60 61 62 63
33 34 34 34 34 35 35 35 36 36 36 37 37 39 40 42 43 43 43 43 43 44 44 45 46 46 46 47 47 48 48 49 49 50 50 51 51 52 52 53 53 54 55 56 57 58 58 59 60 61 62 63
33 34 34 34 34 35 35 35 36 37 37 38 39 41 42 43 44 44 44 45 46 46 47 48 48 49 49 49 50 50 50 51 52 52 53 54 54 54 54 55 55 55 56 57 58 58 59 59 60 61 61 62
35 35 35 36 36 37 38 38 38 38 39 41 42 43 44 44 45 45 46 47 48 49 50 50 51 52 52 53 53 53 53 53 54 55 56 57 57 57 57 57 57 57 59 59 59 59 60 61 61 61 62 62
37 37 37 38 38 39 40 39 39 40 41 43 44 45 45 45 46 46 47 48 49 50 51 52 53 54 54 55 55 55 55 56 57 58 59 59 59 59 60 60 59 60 61 61 61 61 62 62 62 63 63 64

ECMWFFLT2_500_spd_117.txt.gz
Wind_Speed
36 38 38 38 37 37 36 36 37 38 38 38 38 38 37 37 37 38 38 39 39 40 40 40 41 41 42 42 41 41 41 41 41 41 41 41 42 42 43 43 43 43 44 44 44 44 44 44 45 45 45 45
39 40 40 39 38 37 37 37 37 38 39 39 39 39 39 39 39 39 40 40 41 42 42 42 43 43 42 42 42 42 42 42 42 42 43 43 43 44 44 45 45 45 45 46 46 46 46 46 46 46 46 47
40 40 40 40 39 39 39 39 38 39 39 40 40 40 40 41 41 41 41 41 41 42 42 43 43 43 43 43 43 43 43 43 43 44 44 44 45 45 45 46 46 46 46 46 46 46 47 47 47 47 47 47
37 38 39 39 40 40 40 40 40 40 40 41 41 42 42 43 43 42 42 42 42 42 42 43 43 43 43 43 43 44 44 44 45 45 45 45 46 46 46 46 47 47 47 47 47 48 48 48 48 48 48 48
37 38 39 40 41 42 42 42 43 42 43 43 43 43 43 44 43 43 43 43 43 43 43 44 44 44 44 44 45 45 45 46 46 46 47 47 47 47 48 48 48 49 49 49 49 49 50 50 50 50 50 50
41 41 42 43 43 43 44 44 45 45 45 44 44 44 44 44 43 43 44 44 44 45 45 45 45 46 46 46 46 47 47 48 48 48 49 49 49 49 50 50 50 50 50 51 51 51 51 52 52 52 52 52
44 45 45 45 45 45 45 46 46 46 45 45 44 44 44 44 44 45 45 46 46 47 47 47 48 48 48 48 49 49 49 49 50 50 50 51 51 51 51 51 51 52 52 52 52 53 53 53 53 53 53 54
46 47 47 47 47 47 47 47 46 46 45 45 45 45 45 45 46 47 47 48 48 48 49 49 50 50 50 50 51 51 51 51 52 52 52 52 52 52 53 53 53 53 53 53 53 54 54 54 54 54 55 55
47 48 47 47 48 48 48 47 47 47 46 46 46 46 47 47 48 48 49 49 50 50 50 50 51 51 52 52 52 52 53 53 53 53 54 54 54 54 54 54 54 54 54 54 54 54 55 55 55 55 55 56
47 47 47 48 48 48 47 47 48 48 48 48 48 48 48 48 49 49 50 50 51 51 51 52 52 52 53 53 53 54 54 54 55 55 55 55 55 55 55 55 55 55 55 55 55 55 55 55 55 55 55 56
47 47 48 48 48 47 47 48 49 49 49 48 48 49 49 49 50 50 51 51 52 52 53 53 53 53 54 54 54 54 55 55 55 55 56 56 56 56 55 55 55 55 54 54 54 54 54 54 54 54 54 55
47 47 47 47 47 47 48 48 49 49 49 49 49 50 50 51 51 51 52 52 52 53 53 54 54 54 54 54 54 55 55 55 55 55 55 55 55 55 55 54 54 54 53 53 53 53 53 53 53 53 53 54
47 47 47 47 47 48 48 49 49 49 49 50 50 51 51 51 51 52 52 52 53 53 53 54 54 54 54 54 54 54 54 54 54 54 54 53 53 53 53 53 53 52 52 52 52 52 52 52 53 53 53 53
47 47 47 48 48 48 48 49 49 49 50 50 50 51 51 51 52 52 52 52 53 53 53 53 52 52 52 52 52 52 51 51 51 51 51 51 51 51 52 52 52 52 53 53 53 53 53 53 53 54 54 54
47 47 48 48 48 48 49 49 49 49 50 50 51 51 51 51 51 51 51 50 50 50 50 50 50 49 49 49 49 49 49 49 49 50 50 50 51 51 52 52 53 53 54 54 54 54 54 55 55 55 55 55
47 48 48 48 48 49 49 49 49 49 50 50 50 50 49 49 49 48 48 47 46 47 47 47 47 47 47 47 48 48 48 48 49 50 50 51 52 52 53 54 54 54 55 55 55 55 56 56 56 56 55 56
47 47 47 47 48 49 48 48 48 48 48 47 47 46 46 45 45 45 45 44 44 45 45 46 47 47 48 48 48 48 49 49 50 51 51 52 52 53 53 54 54 55 55 56 56 56 56 56 56 56 56 56
46 47 47 47 47 47 46 46 45 45 44 44 43 43 43 43 43 44 44 44 45 46 46 47 48 48 49 48 49 49 49 50 50 50 51 52 52 53 53 54 54 55 55 56 56 56 57 57 57 57 57 57
45 46 46 45 45 44 44 43 43 43 43 43 42 43 43 43 44 44 45 46 46 47 47 47 48 49 48 48 48 49 49 50 50 51 51 52 53 53 54 54 55 55 56 57 57 58 58 58 59 59 59 59
43 44 44 43 43 43 43 43 43 43 43 43 43 43 44 44 45 45 45 46 47 47 47 47 48 48 48 48 49 50 50 51 51 52 53 54 54 55 55 56 56 57 58 58 58 59 59 59 60 60 60 60
43 43 44 44 44 43 43 43 43 43 43 43 43 43 44 44 44 44 45 46 46 47 47 48 49 50 50 50 51 51 52 52 52 53 54 54 55 55 56 56 56 57 57 58 58 58 59 59 59 59 59 59
42 43 43 43 43 42 42 42 42 42 43 43 44 44 44 44 44 44 45 46 47 48 48 49 50 51 52 52 51 51 51 52 52 53 54 54 54 55 55 56 56 57 57 57 57 58 58 58 58 59 59 59
42 42 42 42 42 42 42 42 42 43 44 45 45 45 45 45 45 46 47 47 48 48 49 50 51 52 52 51 51 51 51 52 52 53 54 54 54 55 55 56 56 56 57 57 57 58 58 58 58 59 59 59
43 43 42 42 43 42 42 44 45 46 46 46 45 45 45 46 46 47 47 47 48 48 49 50 51 51 51 50 50 50 50 51 52 52 52 53 53 53 53 53 54 54 54 55 55 56 56 56 57 57 57 58
43 42 42 42 42 42 43 44 45 45 45 44 44 44 45 45 45 46 46 47 48 49 50 50 50 50 49 48 48 48 49 49 49 49 50 50 50 50 50 50 50 50 51 51 52 52 52 52 53 53 54 54
42 41 41 41 42 42 43 43 42 42 42 42 42 42 42 43 44 44 46 47 48 49 49 48 47 46 46 46 46 46 46 47 47 47 47 48 48 48 48 48 48 49 50 50 50 50 50 50 51 51 51 52
41 40 40 40 40 41 40 40 40 40 40 40 39 39 40 41 43 44 45 46 46 46 45 44 44 44 44 44 45 45 46 46 46 47 48 48 49 49 49 49 50 50 51 51 51 51 51 51 51 51 52 52
39 39 39 39 38 38 38 37 37 37 37 37 37 38 39 41 42 44 44 44 44 43 44 44 44 45 45 46 47 47 48 48 49 49 50 50 51 51 52 52 52 53 53 53 54 54 54 54 54 53 54 54
38 38 37 37 36 35 35 35 36 36 36 37 38 39 40 42 43 44 44 44 44 45 46 46 47 47 48 48 49 49 50 50 51 51 51 52 53 53 54 54 54 55 55 56 56 56 56 56 56 56 56 57
37 37 36 36 35 35 35 35 36 36 37 39 40 41 43 44 45 45 45 45 46 47 47 48 49 49 50 50 50 51 51 51 52 52 53 53 54 54 55 56 56 56 57 57 58 58 58 58 58 58 58 58
37 37 36 36 35 36 36 36 36 37 39 40 42 43 44 44 45 45 46 46 47 48 48 49 50 51 51 52 52 52 53 53 53 54 54 55 55 55 56 57 57 58 59 59 59 59 59 59 59 59 59 59

ECMWFFLT2_500_spd_120.txt.gz
Wind_Speed
31 31 31 32 34 35 36 36 35 35 35 34 35 35 36 37 38 38 38 39 38 38 38 38 37 38 38 38 39 39 39 40 40 40 40 40 41 41 41 41 40 40 40 39 39 39 39 39 40 40 40 40
35 36 36 36 37 37 37 37 38 38 37 37 36 36 36 37 37 38 39 39 40 40 39 39 39 39 39 39 40 40 40 41 41 41 42 42 42 42 42 41 41 41 41 40 40 41 41 41 42 42 42 42
37 38 39 40 40 40 40 40 40 40 40 39 38 37 36 36 37 38 38 40 40 41 41 40 40 40 40 41 41 42 42 43 43 43 43 43 43 43 43 42 42 42 42 42 42 43 43 43 43 43 44 44
39 38 39 40 40 41 41 42 42 42 41 41 40 39 38 37 37 38 38 39 40 41 42 42 42 42 42 42 43 43 43 44 43 43 43 43 43 43 43 43 44 44 44 44 44 44 44 44 44 44 45 45
39 38 38 39 40 40 41 41 41 41 41 41 40 39 39 38 38 38 39 39 40 41 42 43 44 44 44 44 44 44 44 44 44 44 44 44 44 44 45 45 45 45 46 46 46 46 46 46 46 46 46 46
38 37 37 38 39 40 40 41 41 41 41 41 40 40 41 41 40 40 41 42 42 43 44 45 45 45 45 44 44 44 44 44 44 45 45 45 46 46 46 46 47 47 47 47 47 47 47 47 47 48 48 48
39 39 39 40 41 42 42 42 42 42 43 43 43 43 44 44 43 43 43 44 45 45 46 46 46 46 45 45 45 45 45 46 46 46 47 47 47 48 48 48 48 48 49 49 49 49 49 49 49 49 49 50
40 41 42 43 44 45 45 45 45 46 46 47 46 46 46 46 46 46 46 46 46 47 47 47 47 47 47 47 47 47 47 48 48 48 49 49 49 49 50 50 50 50 50 50 50 51 51 51 51 51 51 51
41 42 43 44 45 46 47 47 47 48 48 48 48 48 47 47 47 47 47 48 48 48 48 49 49 49 49 49 49 49 49 50 50 50 50 51 51 51 51 51 52 52 52 52 52 52 52 52 52 53 53 53
42 43 44 45 46 47 47 48 48 49 49 49 49 48 47 47 48 48 48 49 49 50 50 50 50 50 50 51 51 51 51 51 52 52 52 52 52 52 53 53 53 53 53 53 53 53 53 54 54 54 54 54
44 45 46 46 47 47 48 48 49 50 50 50 49 48 48 48 48 49 50 50 51 51 51 51 51 51 51 52 52 52 52 53 53 53 53 53 54 54 54 54 54 54 54 54 54 54 54 54 54 55 55 55
45 45 46 47 47 47 48 49 50 51 51 51 50 49 49 49 50 50 51 51 52 52 52 52 52 52 52 53 53 53 54 54 54 54 55 55 55 55 54 54 54 54 54 54 54 54 54 54 54 55 55 55
46 46 46 46 47 48 48 49 50 51 51 51 51 51 51 51 51 51 51 52 52 53 53 53 53 53 54 54 54 55 55 55 55 56 56 56 55 55 55 55 54 54 54 54 54 54 54 54 54 54 54 54
48 48 48 48 48 49 49 49 50 51 51 51 51 51 51 51 52 52 52 53 53 54 54 54 54 55 55 55 55 56 56 56 56 56 56 56 55 55 55 54 54 54 53 53 53 53 52 52 52 53 53 53
48 48 48 48 49 49 50 50 51 51 51 51 52 52 52 52 52 52 53 53 54 54 55 55 55 55 55 56 56 56 56 56 56 55 55 54 54 53 53 53 53 52 52 52 52 51 51 51 52 52 52 53
47 47 47 47 48 49 49 50 50 51 51 52 52 52 52 52 52 53 53 53 54 54 55 55 55 55 55 55 55 55 54 54 54 53 52 52 51 51 51 51 51 51 51 51 51 51 52 52 52 53 53 53
46 46 47 47 48 49 50 50 50 51 52 52 53 53 52 52 53 53 53 53 54 54 54 54 54 54 53 53 53 52 52 51 51 50 50 50 50 50 50 51 51 51 52 52 52 53 53 53 54 54 54 54
45 46 46 47 48 49 50 50 50 51 52 52 52 52 53 53 53 53 53 53 53 53 52 52 51 51 50 50 50 50 50 49 49 49 49 50 50 50 51 51 52 53 53 53 53 54 54 54 54 55 55 55
45 46 46 47 48 49 49 50 50 51 52 52 52 52 52 52 52 52 52 51 51 50 50 49 49 49 48 48 49 49 49 49 49 50 50 51 51 51 52 52 52 53 53 53 53 54 54 54 55 55 55 55
46 46 47 47 48 48 49 49 49 49 49 49 49 49 49 49 49 49 50 49 49 49 48 48 48 48 48 48 49 49 49 50 50 51 51 51 51 51 51 52 52 53 53 54 54 55 55 55 55 56 56 56
44 44 45 45 46 46 46 46 45 45 45 45 45 46 46 47 48 49 49 49 49 49 48 47 47 47 48 48 49 49 50 50 51 51 51 51 51 51 52 53 53 54 55 55 55 56 56 56 56 57 57 57
43 44 44 44 44 44 43 43 43 43 43 43 44 45 46 47 48 49 49 49 48 47 46 46 46 47 48 48 49 50 50 51 52 52 52 52 52 53 53 54 55 55 55 55 56 56 56 56 56 56 56 56
44 44 44 44 44 44 43 43 43 42 43 44 45 45 46 47 47 47 48 47 46 45 45 45 46 47 49 50 51 52 52 53 53 53 52 52 53 53 54 55 55 55 55 55 55 55 55 55 55 56 56 56
44 45 45 44 44 44 44 44 44 44 44 45 45 46 46 46 47 47 46 45 45 44 45 46 48 49 51 52 53 53 53 53 53 52 52 51 52 53 54 54 54 54 54 54 54 54 54 54 54 54 54 53
45 46 46 46 45 45 45 46 46 46 46 46 46 47 47 47 46 45 44 44 44 44 46 47 49 50 52 53 53 53 53 52 51 51 50 50 51 51 52 52 52 52 51 51 51 51 51 50 50 50 49 49
45 45 46 46 46 46 47 47 47 47 47 47 47 47 46 45 44 43 42 43 44 45 47 48 50 51 53 53 52 51 51 50 50 49 49 49 49 49 49 49 49 48 48 48 48 48 47 47 47 47 47 47
44 45 46 46 47 47 47 47 47 47 46 46 46 45 44 43 42 42 43 44 45 47 48 50 51 52 52 51 50 49 49 48 48 47 47 47 47 47 47 47 47 47 48 48 49 48 48 48 48 48 49 49
44 45 46 46 47 47 47 46 46 45 45 44 43 42 42 42 43 44 45 46 48 48 49 50 50 50 49 48 48 47 47 47 47 47 47 47 47 47 48 49 49 50 50 50 51 51 50 51 51 50 51 52
44 45 45 46 46 46 46 45 44 43 42 41 41 41 42 43 45 47 47 47 47 47 48 48 48 47 47 47 47 47 47 48 48 49 49 49 49 50 50 51 51 51 52 52 53 53 52 53 53 53 53 54
44 44 45 45 45 45 44 43 42 41 40 40 41 42 43 45 46 46 46 46 46 46 46 47 47 47 48 48 49 49 49 50 50 50 50 51 51 51 51 52 52 52 53 54 54 55 55 54 54 54 55 55
43 43 44 44 44 44 43 42 41 40 40 41 42 43 44 45 46 46 46 46 46 47 47 48 49 49 49 50 50 50 51 51 51 51 52 52 52 52 53 53 53 54 55 56 56 56 56 56 56 56 56 56

ECMWFFLT2_500_spd_123.txt.gz
Wind_Speed
27 27 26 25 25 25 26 27 26 26 27 27 27 27 28 29 30 31 32 33 33 34 34 35 35 35 36 36 36 36 37 37 37 37 37 38 38 39 39 39 39 39 39 39 39 39 39 39 39 39 38 38
30 30 30 29 29 29 29 29 29 29 30 30 30 29 29 30 31 32 33 33 34 35 36 36 37 37 37 38 38 38 39 39 39 39 39 39 39 40 40 40 41 41 41 41 41 41 41 41 40 40 40 39
33 33 32 32 33 33 33 32 32 32 32 33 33 33 33 33 33 34 35 35 36 36 37 38 39 39 39 40 40 40 41 41 41 40 40 40 40 40 41 41 42 42 42 42 42 42 42 41 41 41 40 40
35 34 34 35 36 36 36 36 35 35 35 36 36 36 35 35 36 36 37 37 37 38 38 38 39 40 40 40 41 42 42 42 42 42 41 41 41 41 42 43 43 43 44 43 43 43 43 42 42 42 42 41
36 36 36 37 37 38 38 39 39 39 39 39 39 39 38 38 38 38 38 39 39 39 39 38 39 39 40 41 41 42 43 43 44 43 43 43 43 43 43 44 44 44 44 44 44 43 43 43 43 43 43 43
37 37 37 38 39 40 41 40 41 41 41 41 41 42 41 40 40 41 40 40 40 40 40 39 39 40 40 41 41 42 43 44 45 45 45 45 45 45 45 45 45 45 45 44 44 44 44 44 44 45 45 45
38 37 37 37 39 40 41 42 42 42 43 43 43 43 42 40 40 41 40 40 40 40 40 40 41 41 41 42 42 43 44 45 46 46 47 47 46 46 46 46 46 46 45 45 45 45 46 46 46 46 47 47
38 39 39 38 39 39 40 41 41 42 43 43 43 42 41 40 40 40 40 40 41 41 42 42 43 43 44 44 45 45 46 46 47 48 48 48 47 47 47 47 47 47 47 47 47 47 48 48 48 48 49 49
38 39 40 40 40 39 40 41 42 42 43 43 44 43 43 42 41 42 42 42 43 43 44 45 45 45 46 46 47 47 47 48 48 48 48 48 48 48 48 48 49 49 49 49 49 50 50 50 50 50 50 50
39 39 41 41 41 41 41 42 43 44 45 46 46 46 46 45 45 45 45 45 45 46 46 47 47 47 48 48 48 48 49 49 49 49 49 50 50 50 50 50 51 51 51 51 51 52 51 51 52 52 52 52
43 42 42 43 43 43 43 44 45 45 46 47 47 48 48 47 47 47 47 47 47 48 48 48 48 49 49 49 49 50 50 50 50 51 51 51 52 52 52 52 52 53 53 53 53 53 53 53 53 53 53 53
47 47 46 46 45 45 45 46 46 47 47 48 49 49 49 49 49 49 49 49 49 49 49 49 50 50 50 51 51 51 51 52 52 52 53 53 53 53 53 53 53 54 54 54 54 54 54 54 54 54 54 54
49 49 49 47 47 47 47 47 48 48 49 49 50 50 50 50 50 50 50 50 50 51 51 51 51 51 51 52 52 52 53 53 53 53 54 54 54 54 54 54 54 54 54 54 55 55 55 55 55 55 55 55
48 49 49 48 47 47 48 48 49 49 50 50 51 51 52 51 51 51 51 51 52 52 52 52 52 52 52 52 53 53 53 54 54 54 54 54 54 54 55 55 55 55 55 55 55 56 56 56 56 56 56 56
45 46 46 47 47 47 48 49 50 50 51 51 52 52 53 53 52 52 52 52 53 53 53 53 53 53 53 53 53 53 54 54 54 54 54 55 55 55 55 55 56 56 56 56 56 56 56 56 56 55 55 55
42 43 44 45 45 46 48 49 50 50 51 52 53 53 54 53 53 52 53 53 53 53 53 53 53 53 53 53 53 54 54 54 54 54 54 55 55 55 55 55 55 55 56 56 55 55 55 55 55 55 55 55
42 43 44 44 45 45 46 47 48 49 50 51 52 53 53 52 52 52 52 52 52 52 52 52 53 53 53 53 54 54 54 54 54 54 54 54 54 55 55 55 55 54 54 54 54 54 54 54 54 54 54 54
41 43 43 44 44 45 46 46 47 48 50 51 51 51 52 52 52 52 52 52 52 52 52 52 53 53 53 53 54 54 54 54 53 53 53 54 54 54 54 54 53 53 53 52 52 52 52 52 52 53 53 53
42 43 44 44 45 45 45 45 46 48 49 50 50 51 51 52 52 52 52 52 52 52 52 53 53 53 53 53 53 53 52 52 52 52 53 53 53 53 53 53 52 52 51 51 50 50 51 51 52 52 53 53
42 43 44 45 45 46 46 46 47 48 49 49 50 50 51 51 52 52 52 52 52 52 52 52 52 52 51 51 50 50 49 50 50 51 51 52 52 52 52 52 51 51 50 50 50 51 52 52 53 53 53 54
40 41 42 44 45 46 47 47 47 48 48 49 49 50 50 51 51 51 51 51 51 51 51 50 50 49 49 48 47 47 47 48 49 50 50 51 52 52 52 52 51 50 50 50 51 52 53 53 53 53 54 54
40 41 42 43 44 44 45 45 45 45 45 46 47 48 48 49 49 49 50 50 49 49 48 48 47 47 46 46 46 46 47 48 49 50 51 52 52 53 52 51 50 49 49 50 52 53 53 53 54 54 55 55
42 43 44 44 44 44 44 43 44 44 44 45 47 47 48 48 48 49 50 50 49 49 48 47 47 46 46 46 47 47 47 48 49 51 52 53 53 52 51 50 49 49 50 52 53 54 54 54 54 55 55 55
44 45 44 44 45 44 44 44 45 45 46 47 48 48 48 48 49 50 50 50 50 49 48 47 46 46 46 46 46 46 47 48 49 51 53 53 52 51 50 50 50 51 53 54 55 55 55 55 55 55 54 54
43 44 45 45 45 45 45 46 46 46 46 47 47 48 48 48 49 49 49 49 48 48 47 46 46 46 46 46 46 47 48 49 51 53 54 54 53 52 51 52 53 53 54 54 55 55 55 54 54 53 53 52
42 43 44 45 45 46 47 47 48 48 47 48 48 49 48 48 48 47 47 47 46 46 46 46 47 47 47 48 48 49 51 52 54 55 56 56 54 53 53 53 53 53 53 54 54 54 54 53 52 51 51 50
41 42 43 44 45 46 47 47 48 48 48 48 48 48 48 47 47 46 46 45 45 46 47 47 48 48 49 50 51 52 53 55 56 57 57 56 54 53 52 52 52 53 53 54 54 53 52 51 50 49 48 47
40 42 43 44 45 45 46 46 46 46 46 46 47 46 46 46 46 45 45 46 47 48 48 49 49 50 51 52 53 54 55 56 57 56 56 54 53 52 51 51 52 52 52 52 51 51 49 49 48 47 47 48
41 42 43 44 45 45 45 44 44 44 44 44 45 45 45 45 46 47 47 48 49 50 51 51 52 52 53 54 54 54 54 55 55 54 54 52 51 51 51 51 51 50 50 49 50 50 49 48 48 48 49 50
41 42 43 45 46 46 46 46 45 44 44 44 44 45 46 47 48 49 50 50 51 51 52 52 52 52 52 53 53 53 53 53 53 53 52 51 51 50 51 50 50 49 50 50 50 50 50 50 50 50 50 51
39 41 42 44 45 46 47 47 47 47 47 46 46 46 47 48 49 49 50 50 50 51 51 51 51 51 51 51 51 51 52 52 52 52 52 52 52 52 52 51 51 51 51 51 51 51 51 51 51 51 52 52

ECMWFFLT2_500_spd_126.txt.gz
Wind_Speed
34 34 31 29 28 26 25 27 30 34 39 41 42 42 41 42 42 41 39 37 36 35 35 35 35 35 36 36 36 36 36 36 36 36 36 36 37 37 37 36 36 36 36 36 36 36 36 36 36 36 36 36
28 29 28 28 27 25 23 22 22 25 30 34 35 35 35 36 36 36 35 35 36 36 36 36 36 36 36 36 36 36 36 35 36 36 36 37 37 37 37 37 37 37 37 37 38 38 38 38 38 38 38 38
28 27 27 28 30 28 25 23 22 23 25 27 28 28 29 30 30 30 30 31 33 34 35 35 35 35 36 36 37 37 37 37 37 37 37 37 37 38 38 38 38 39 39 39 39 40 40 40 40 40 40 40
31 30 29 31 33 32 30 29 28 27 28 29 29 28 28 29 30 30 30 31 31 32 33 34 35 35 36 37 37 38 38 38 38 38 39 39 39 39 40 40 40 40 40 40 41 41 41 41 41 41 41 41
34 33 32 33 35 35 35 34 33 32 32 32 32 32 31 32 33 33 33 33 33 34 34 35 36 36 37 38 39 39 40 40 40 40 41 41 41 41 41 42 42 42 42 42 41 42 42 42 42 43 43 43
36 36 35 35 36 36 36 37 36 35 35 35 36 35 35 35 35 35 35 34 34 35 36 36 37 38 38 39 40 40 41 41 41 42 42 42 42 43 43 43 43 43 43 43 43 43 43 43 44 44 45 45
39 38 37 36 36 37 37 38 38 38 38 38 38 38 38 38 37 36 36 36 36 37 38 39 39 40 40 40 40 40 41 41 41 42 42 43 43 43 44 44 45 45 45 45 45 45 45 45 45 45 46 45
41 41 40 38 38 38 38 39 39 40 40 41 41 41 40 40 40 38 38 38 39 40 41 41 41 41 42 41 41 41 41 41 42 42 42 43 43 44 44 45 45 46 47 47 47 47 47 47 46 46 46 46
42 42 42 41 40 39 40 40 41 41 41 42 43 42 42 42 41 40 40 40 41 42 43 42 42 42 42 43 42 42 42 42 42 43 43 43 44 44 45 45 46 47 48 49 49 49 48 48 48 47 47 47
44 44 44 44 43 42 41 42 42 43 42 42 42 42 43 43 43 41 41 41 42 44 44 44 43 43 43 43 43 43 43 43 43 44 44 45 45 46 46 47 48 48 49 50 50 50 50 50 49 49 49 49
46 47 46 45 45 44 44 44 44 43 42 42 42 42 43 43 43 42 42 42 43 45 45 45 44 44 44 45 45 45 45 45 46 46 46 47 47 48 48 49 49 50 51 51 51 51 51 51 51 51 51 51
45 47 48 47 46 45 44 44 44 44 43 43 43 43 44 44 44 44 45 45 46 46 47 47 47 46 46 47 47 48 48 48 48 48 49 49 49 50 50 51 51 51 52 52 52 53 53 53 53 53 53 53
48 50 50 50 48 47 46 45 45 45 45 45 45 46 46 47 47 47 47 47 48 48 49 49 49 49 48 49 49 49 50 50 50 50 50 51 51 51 52 52 53 53 53 53 54 54 54 54 55 55 55 55
48 50 52 53 53 52 51 49 48 48 48 48 48 48 49 50 49 49 48 48 48 49 49 49 49 50 50 50 50 51 51 51 51 52 52 52 52 53 53 53 54 54 55 55 55 55 56 56 56 56 56 55
44 45 47 51 53 54 53 51 51 50 50 50 50 51 51 51 51 50 50 49 49 49 49 50 51 51 51 52 52 52 53 53 53 53 53 54 54 54 54 55 55 55 56 56 56 56 56 56 56 56 56 56
39 40 41 44 46 48 48 48 49 50 51 52 52 52 52 52 52 52 51 51 50 50 50 51 52 53 53 53 54 54 54 54 55 55 55 55 55 55 55 55 55 56 56 56 56 56 56 56 56 56 56 56
37 38 38 40 41 43 44 45 46 47 49 50 50 51 51 52 53 53 53 52 52 52 52 53 53 54 54 55 55 55 55 56 56 56 56 56 55 55 55 55 56 56 56 56 56 56 56 56 56 56 56 56
38 39 39 40 41 42 43 43 44 46 47 48 48 49 49 51 52 52 53 53 53 53 53 53 54 55 55 55 55 56 56 56 56 56 55 55 55 55 55 55 55 55 55 55 56 56 56 56 56 56 56 55
38 39 40 41 42 43 44 44 45 46 47 47 48 48 48 50 51 52 52 52 52 52 52 53 53 54 54 55 55 55 55 55 55 55 55 55 55 55 55 55 55 55 55 55 55 55 55 55 55 55 55 54
37 38 39 41 42 43 45 46 46 47 47 48 48 48 49 49 51 51 52 52 52 52 52 52 53 53 54 54 54 54 54 54 54 54 54 54 55 54 54 54 54 55 55 55 55 55 54 54 53 53 53 53
38 38 39 40 41 42 44 45 46 46 47 48 48 49 49 50 51 52 52 52 52 52 52 52 52 53 53 53 53 53 53 53 53 53 53 53 53 53 53 53 53 54 54 54 54 53 52 52 51 51 51 51
40 40 41 41 42 42 43 43 43 44 45 45 46 48 49 50 51 52 53 53 53 53 53 53 53 53 52 53 52 52 52 52 52 52 52 51 51 51 51 52 52 52 53 53 52 52 51 51 51 50 50 50
42 43 43 43 43 44 44 43 42 42 43 44 45 46 48 49 50 50 51 51 52 52 52 52 52 52 51 50 50 50 49 49 49 49 49 49 49 50 50 50 51 51 52 52 51 51 50 50 50 50 50 51
44 45 45 45 45 45 44 44 44 45 45 46 46 47 48 49 49 49 50 50 50 50 50 50 50 49 49 48 48 48 48 48 48 48 49 49 49 49 50 50 51 51 52 52 52 51 50 50 50 51 51 52
43 45 45 45 45 45 45 46 47 48 48 47 48 48 49 49 50 50 51 51 50 50 50 50 49 49 48 48 48 48 48 48 49 49 49 49 49 49 50 51 52 52 53 53 52 51 50 50 51 52 53 53
44 44 44 44 45 46 47 48 49 49 49 50 50 50 51 51 51 51 50 50 50 50 50 49 49 49 49 49 49 48 48 48 48 48 48 49 49 50 50 52 53 54 54 53 52 52 51 52 52 53 54 54
47 46 46 46 47 47 48 49 50 50 50 51 51 51 51 51 51 50 50 49 50 50 50 50 50 50 50 49 49 48 47 47 48 48 49 49 50 51 52 53 54 55 55 54 53 53 52 53 54 54 54 54
47 48 48 49 50 50 50 49 49 49 50 50 49 49 50 50 49 49 49 50 50 51 52 52 52 52 51 50 50 49 49 50 50 50 51 51 52 53 54 55 56 56 56 55 54 54 53 54 54 55 54 54
45 47 49 50 51 52 51 50 49 49 48 48 48 48 49 49 49 50 50 51 51 53 53 53 53 53 52 52 52 53 53 53 53 53 54 54 55 55 56 57 58 58 58 56 55 54 54 54 54 54 53 53
46 47 48 50 51 52 52 52 51 50 50 50 50 50 50 51 51 52 53 53 53 54 54 55 55 55 54 55 55 56 56 56 56 56 56 57 57 57 58 59 59 58 58 57 55 54 53 54 54 54 53 53
48 48 49 50 51 51 52 53 53 53 54 54 54 54 54 53 53 54 54 54 54 55 55 56 56 56 56 56 57 57 57 57 58 58 58 58 58 58 59 59 58 58 58 57 55 54 54 54 54 54 53 53

ECMWFFLT2_500_spd_132.txt.gz
Wind_Speed
39 39 39 39 39 40 39 38 39 42 44 46 49 47 45 45 45 47 46 46 44 41 44 48 50 52 53 53 55 57 59 60 59 59 58 57 56 56 56 55 54 52 51 50 49 48 47 46 45 44 43 43
40 40 40 40 39 39 38 37 38 40 43 45 48 47 46 46 47 48 48 48 48 46 46 47 48 49 51 53 55 59 62 64 63 63 62 60 59 59 59 58 56 54 52 51 50 49 48 47 46 45 44 43
39 39 39 40 40 39 38 38 37 37 40 43 45 47 47 48 49 50 50 51 51 50 49 46 45 46 47 49 53 58 63 66 66 67 66 64 62 61 60 59 58 56 54 52 51 50 49 47 46 45 44 44
37 38 39 41 40 37 37 38 38 37 37 39 42 43 45 47 49 50 50 50 51 50 49 45 43 44 44 46 51 56 62 67 69 70 69 68 66 63 61 60 59 56 54 53 51 50 48 47 46 45 45 44
37 38 39 41 39 37 36 37 37 37 37 37 37 38 38 40 43 44 43 43 45 47 47 46 45 43 42 43 48 54 60 65 69 71 72 71 69 65 62 61 59 56 54 53 52 50 48 47 46 45 45 44
37 38 39 40 38 38 37 36 36 37 38 38 37 37 36 36 35 36 36 36 37 40 43 44 44 42 40 41 46 52 58 63 68 71 72 71 69 67 64 62 59 56 55 53 52 50 49 48 47 46 46 45
36 36 38 39 38 38 38 38 38 38 39 40 40 40 39 37 34 33 34 33 31 33 36 37 39 40 39 40 44 49 56 62 66 68 68 67 65 65 65 63 59 56 54 52 51 50 49 48 48 47 47 47
35 36 37 39 39 38 38 39 41 41 41 41 42 42 41 40 38 36 35 34 31 31 31 31 34 38 40 41 43 47 53 57 60 61 61 61 60 60 60 58 55 53 52 51 50 49 49 49 48 48 48 48
36 36 37 38 39 38 39 41 42 42 43 44 43 43 42 41 40 39 38 37 36 35 34 32 32 34 37 40 43 47 51 53 55 57 57 57 57 56 55 53 51 50 50 49 49 50 50 49 49 49 49 49
38 38 39 41 40 40 41 42 42 42 44 45 45 44 43 42 41 40 40 39 39 38 37 36 35 34 34 36 39 43 47 50 52 53 54 54 53 52 51 50 48 48 48 48 48 48 48 48 48 49 49 49
38 38 40 42 41 39 40 42 42 42 44 46 48 48 45 43 42 41 41 40 41 41 41 41 39 38 37 36 36 38 41 44 47 49 49 49 49 48 46 45 44 44 45 45 45 45 45 45 46 47 47 47
37 36 37 40 39 37 40 44 44 42 44 46 49 51 49 46 43 42 42 42 42 43 44 44 44 43 42 40 39 38 39 41 43 45 46 46 46 45 44 43 42 42 43 43 44 44 45 45 45 45 45 46
36 35 36 39 40 39 43 46 45 44 45 47 49 51 51 49 46 45 45 46 45 45 46 46 46 46 46 45 44 43 42 42 43 44 44 45 45 46 45 45 44 44 44 45 46 46 46 46 46 46 45 45
37 37 38 39 39 41 44 46 45 45 48 49 50 51 53 54 52 50 49 49 49 48 48 47 46 47 47 48 48 47 47 45 45 45 45 45 45 46 45 45 45 46 46 47 47 47 47 46 46 46 45 44
36 38 39 41 41 41 44 46 46 47 49 50 51 51 52 54 55 53 52 52 51 50 50 50 49 49 48 48 49 49 49 48 47 47 47 47 47 47 47 47 47 47 49 49 49 48 48 48 47 46 45 44
36 37 39 42 45 45 45 45 47 48 48 48 50 50 50 52 53 53 53 53 53 52 50 49 50 51 50 50 49 48 49 48 47 47 48 49 49 50 50 50 49 49 50 50 50 49 49 49 48 47 46 45
36 37 36 41 45 47 47 46 47 47 46 44 44 45 45 45 47 49 50 51 51 51 50 48 48 49 49 50 50 49 49 49 48 48 49 49 50 51 51 51 51 50 49 48 48 47 48 48 47 47 47 47
37 37 36 38 43 45 45 45 46 47 47 46 44 43 42 40 40 41 44 46 47 48 49 48 48 47 48 49 50 50 50 50 50 50 50 50 50 51 51 51 51 50 49 48 47 47 47 47 47 47 48 48
37 38 39 40 42 43 42 42 45 47 47 46 46 45 44 43 42 42 43 44 45 46 46 46 47 47 47 48 49 50 51 52 51 50 51 51 51 51 51 51 51 51 50 50 49 48 48 48 48 49 49 49
37 38 39 40 41 42 41 43 45 45 44 44 45 44 43 43 41 41 45 46 47 47 46 45 45 46 47 47 48 49 51 52 52 52 51 52 52 51 51 51 51 51 50 50 50 49 49 49 50 50 50 51
37 38 38 39 40 41 43 45 44 43 43 44 47 45 42 40 40 44 48 49 50 50 50 49 47 47 46 46 47 48 50 52 53 53 53 53 53 52 52 52 52 51 50 50 50 50 50 51 51 52 52 52
39 39 39 39 40 41 41 43 43 44 45 45 47 47 45 44 45 49 51 53 54 53 53 53 52 50 49 49 49 50 51 51 52 53 53 53 53 53 53 52 52 52 51 51 51 51 52 53 53 54 54 54
41 40 40 41 43 42 41 41 42 43 44 46 47 47 48 49 51 51 50 53 55 55 54 53 53 54 53 52 52 53 54 53 53 54 54 53 53 52 52 52 52 52 51 51 51 52 53 53 54 55 55 55
42 41 40 41 44 44 43 43 43 42 43 45 46 47 48 51 52 52 51 52 54 56 57 55 54 54 55 54 54 54 55 55 56 56 55 55 53 53 52 52 52 51 51 51 52 52 53 54 54 54 54 54
43 43 42 42 44 45 44 44 44 44 44 45 46 47 48 51 53 54 54 55 55 54 56 57 55 54 55 56 55 55 54 55 56 55 54 55 54 54 54 53 53 53 53 53 53 53 53 53 53 54 54 54
43 43 43 44 45 45 45 45 46 46 46 46 47 47 49 51 53 55 55 56 55 53 54 57 57 56 56 57 57 56 54 53 53 53 52 53 54 55 55 55 54 54 53 52 52 52 53 53 53 54 53 53
46 46 45 45 46 46 46 47 48 47 48 48 48 48 49 50 52 53 55 56 56 55 54 56 59 58 58 58 58 58 56 54 53 53 52 53 53 55 55 55 54 53 52 51 51 52 53 52 52 52 52 52
51 50 49 49 49 49 49 50 49 49 49 49 49 50 50 51 51 53 54 55 57 57 56 57 59 59 59 60 59 58 57 55 53 53 54 55 55 55 55 55 54 52 52 52 52 53 52 52 53 53 52 51
55 55 54 53 52 52 52 53 53 52 51 51 51 52 52 52 52 53 54 55 56 57 58 59 61 61 61 61 61 61 60 57 55 55 56 57 57 57 56 56 55 54 54 54 54 54 54 54 54 53 52 52
58 58 58 57 56 56 55 56 56 56 55 54 54 54 54 55 55 55 55 56 56 57 58 60 62 62 62 61 62 63 62 59 57 56 56 58 58 58 58 57 57 57 56 56 56 56 56 55 54 53 53 54
61 61 61 60 60 59 59 58 59 59 59 58 58 58 58 58 57 56 57 57 58 58 59 60 61 62 62 62 62 63 64 62 58 57 57 58 58 59 59 59 58 57 58 59 58 58 57 57 56 56 55 55

ECMWFFLT2_500_spd_135.txt.gz
Wind_Speed
36 35 35 38 41 40 39 40 38 36 36 35 35 36 38 40 40 40 42 44 42 41 41 41 41 40 39 38 38 39 41 44 48 52 54 55 56 55 53 53 55 54 53 54 54 53 53 52 51 50 49 48
36 37 38 39 40 41 41 41 38 37 36 34 35 36 36 38 40 41 42 44 44 44 45 45 43 42 42 41 40 42 42 42 44 47 51 54 57 57 55 54 56 56 55 55 55 55 55 54 54 52 51 50
34 35 37 38 40 42 44 45 45 43 42 38 37 37 37 38 38 39 41 43 44 45 46 46 45 44 44 44 43 43 45 46 47 47 48 51 55 57 57 57 57 57 58 57 57 57 57 57 56 55 54 52
34 35 37 38 39 42 43 45 46 44 43 41 40 39 38 39 38 38 39 40 41 43 45 46 47 46 47 47 46 47 48 49 50 51 50 50 54 56 58 59 60 60 60 60 59 59 59 59 58 58 57 55
37 38 39 39 39 41 42 43 44 43 40 40 40 39 39 39 39 38 37 37 37 39 41 43 46 48 50 50 49 50 52 52 52 53 52 51 53 57 60 61 62 63 63 63 63 63 63 62 61 60 59 58
38 40 41 41 40 40 42 43 43 42 39 39 40 39 38 38 38 38 37 35 34 35 36 37 40 44 47 48 49 49 52 54 54 54 53 50 51 56 62 64 65 66 67 67 66 66 66 66 65 64 63 62
38 40 42 43 42 41 41 42 43 41 39 40 41 40 38 38 37 38 38 37 36 36 37 37 36 35 37 39 40 42 46 50 52 52 51 48 49 52 59 65 67 69 70 70 71 71 71 70 69 68 66 65
41 41 42 43 43 42 41 40 41 41 40 41 42 41 40 39 39 40 39 39 39 40 40 40 39 35 34 33 33 34 37 41 43 45 46 45 47 48 54 62 67 70 71 73 74 74 74 74 73 71 70 68
41 43 43 43 43 42 40 38 39 40 41 43 43 42 42 41 42 42 42 41 41 42 41 41 41 40 38 37 35 33 33 33 35 38 41 42 44 46 51 58 64 68 71 73 75 75 75 75 73 72 71 70
39 41 41 43 43 42 38 37 40 41 41 43 43 42 42 44 45 46 45 43 42 41 41 42 41 41 41 40 39 36 34 33 32 34 37 40 42 44 49 56 60 65 70 73 74 74 73 73 73 73 71 69
35 37 39 40 41 40 39 39 42 44 43 44 43 41 42 45 48 50 49 46 43 41 40 41 41 41 40 40 40 38 37 35 34 34 35 38 41 44 49 54 58 62 67 70 70 69 68 68 70 71 69 67
32 34 36 38 39 39 39 40 42 45 45 44 42 41 43 47 49 50 50 47 46 43 41 41 41 41 40 39 39 38 38 38 37 37 37 38 40 43 46 50 53 57 60 64 65 65 64 65 67 67 65 63
32 33 34 36 37 38 39 40 41 43 44 43 41 42 44 46 48 50 51 50 48 47 45 42 41 41 40 40 40 40 40 40 39 38 39 39 40 41 44 47 50 52 55 57 60 61 62 63 63 64 62 60
32 34 35 36 37 38 39 40 41 40 40 39 38 41 42 42 43 46 48 49 48 48 47 45 44 43 42 41 42 42 42 42 41 41 40 40 40 41 43 45 48 50 52 54 56 58 60 61 61 61 59 57
32 33 34 35 37 38 39 40 40 39 38 39 39 40 41 42 43 44 45 46 47 48 48 47 47 47 47 47 46 46 45 44 43 42 41 41 41 41 42 44 46 48 51 52 53 55 58 59 60 59 56 54
32 33 34 35 36 37 39 41 41 41 40 41 42 42 42 43 42 43 44 44 44 46 48 50 50 50 51 52 51 51 50 49 46 44 42 42 42 42 43 43 44 46 48 50 50 52 54 55 55 54 52 51
32 33 34 35 37 37 38 41 41 42 41 42 46 46 45 45 44 43 43 42 40 40 44 48 51 52 52 53 53 53 53 52 51 48 45 43 43 43 44 45 45 45 46 47 48 49 51 51 50 50 49 49
34 33 34 35 37 38 38 40 41 44 43 43 47 48 47 48 47 47 45 44 43 40 40 42 45 47 49 50 50 50 52 53 53 52 49 47 46 45 45 45 46 47 47 47 47 48 49 49 49 48 48 48
36 36 35 35 37 38 38 40 42 44 45 45 46 48 49 48 46 45 44 44 43 41 40 39 41 43 44 45 45 45 46 48 50 51 51 50 49 48 47 46 46 47 48 48 49 49 49 49 48 48 47 48
38 38 37 37 38 38 38 40 41 44 45 45 45 47 50 49 45 44 44 44 42 41 40 39 40 42 43 43 42 42 42 43 45 47 48 49 50 50 50 49 48 48 48 49 49 49 49 49 49 48 48 48
38 38 38 39 39 39 39 40 41 43 44 45 46 47 48 49 48 46 47 45 43 42 42 40 39 40 42 43 42 42 42 43 44 45 46 47 48 50 51 51 51 51 50 50 50 50 50 49 49 49 49 49
39 39 39 40 40 41 41 41 41 43 44 45 47 48 48 49 50 49 48 47 44 44 44 43 42 42 43 45 46 47 47 46 47 47 47 47 47 48 49 51 52 52 52 52 52 52 51 50 49 49 49 49
41 41 41 42 42 42 42 42 43 43 44 45 46 47 48 48 49 49 50 49 46 45 45 45 46 46 47 49 50 51 50 49 49 51 51 51 50 49 49 50 50 51 51 51 52 52 51 51 50 50 49 49
44 43 43 43 44 43 43 44 44 45 45 45 45 46 46 47 48 49 50 50 48 48 49 49 49 49 49 50 52 53 52 51 52 52 53 53 52 52 51 51 51 50 50 50 50 51 51 51 51 51 50 50
47 47 46 46 46 46 45 45 46 47 48 47 46 46 46 47 48 50 50 50 50 52 54 54 54 54 52 50 52 53 53 52 53 53 53 54 54 53 53 54 53 52 51 51 51 51 52 52 51 51 51 51
51 50 50 50 50 49 48 48 49 50 51 49 48 47 47 47 49 50 51 51 51 53 56 56 57 59 59 56 54 53 55 55 55 55 55 55 55 54 54 54 54 52 52 52 53 53 53 53 52 52 52 52
55 54 54 54 54 53 52 52 52 53 54 52 51 50 49 49 50 51 51 52 53 54 56 57 58 59 62 62 58 54 56 58 57 57 57 56 56 55 55 55 54 53 52 53 54 54 54 53 53 53 52 52
58 58 58 58 58 57 56 56 55 56 57 56 55 54 53 52 52 53 52 53 54 55 56 57 58 59 60 62 62 60 60 61 59 58 58 58 58 56 55 55 55 55 54 53 53 53 53 52 53 52 51 51
61 61 62 62 62 62 61 61 60 60 60 59 59 58 57 56 55 55 55 55 56 56 56 57 58 58 58 59 61 63 63 64 63 61 61 60 59 57 56 56 55 55 54 53 53 53 53 52 51 50 50 51
63 64 64 65 65 65 65 65 64 64 64 63 62 62 61 60 59 58 58 57 58 58 58 59 59 59 59 60 61 62 63 64 64 64 64 62 60 60 59 57 55 54 54 54 54 54 53 53 52 51 51 52
64 64 65 66 66 67 68 68 68 68 68 67 66 66 65 64 63 62 61 60 60 60 60 61 61 61 61 61 61 62 63 64 64 63 64 64 64 64 62 59 56 54 55 55 54 54 54 55 54 52 53 52

ECMWFFLT2_500_spd_138.txt.gz
Wind_Speed
30 30 29 27 28 29 28 30 34 34 34 36 39 40 39 39 37 34 35 35 35 34 33 34 35 34 34 36 38 39 40 41 39 36 39 47 52 52 54 54 53 54 55 55 52 51 52 52 53 53 53 53
30 29 29 30 30 31 32 35 37 38 40 40 40 40 37 36 35 32 31 33 34 35 36 36 38 39 39 39 40 42 42 42 42 39 36 39 46 47 48 51 53 53 54 55 54 53 52 53 55 55 54 54
31 32 34 34 33 34 35 36 36 38 41 41 39 40 39 37 37 35 33 34 33 35 37 38 39 41 42 42 42 43 45 44 44 43 40 37 40 43 41 44 50 54 55 54 54 54 53 55 57 57 56 55
31 34 35 35 34 34 36 37 37 37 39 40 39 41 44 44 44 43 41 39 38 37 37 38 39 39 41 42 41 43 45 46 45 45 44 40 39 42 42 41 43 49 54 56 56 55 55 55 57 59 58 57
32 34 34 34 36 37 37 37 37 38 39 40 39 41 44 46 46 46 46 43 41 40 39 39 38 38 38 39 40 41 42 44 45 45 45 44 41 42 45 45 44 45 48 53 56 58 57 56 57 59 60 60
32 34 34 35 37 40 40 39 38 38 40 40 40 40 41 45 46 46 45 43 41 40 40 39 39 38 37 37 38 38 39 39 42 44 45 46 45 44 45 48 50 49 48 49 52 55 58 58 58 60 62 62
32 35 36 36 37 39 41 42 42 41 42 42 40 38 39 42 45 44 44 42 41 40 40 40 39 38 37 37 36 36 35 35 36 39 42 44 46 48 48 48 51 53 53 53 52 53 55 58 60 60 62 63
32 35 35 36 37 39 41 43 44 44 45 45 44 42 41 42 44 44 43 42 42 42 42 41 40 39 38 38 38 37 36 35 34 34 35 37 40 44 48 50 50 53 55 57 57 56 55 57 61 62 63 64
32 34 34 34 36 38 39 41 43 43 44 45 45 45 44 43 44 45 44 43 43 43 44 43 42 41 41 40 40 40 39 38 37 36 34 32 32 35 40 46 49 51 54 57 58 59 57 57 60 63 65 66
31 33 34 36 37 37 36 37 39 40 42 42 42 44 43 42 43 45 45 45 44 45 45 45 44 44 43 42 42 41 40 39 38 37 36 34 33 32 33 37 43 48 52 56 58 60 59 57 58 63 66 68
30 32 34 35 37 37 36 37 37 39 41 41 41 40 40 42 43 45 46 46 45 45 44 44 45 46 46 45 44 42 41 40 39 37 35 35 34 34 33 33 36 41 47 53 56 58 58 56 56 60 65 69
30 31 33 33 35 37 38 40 38 38 39 38 39 39 40 44 44 44 46 44 43 43 43 43 45 46 47 46 45 44 42 41 41 38 36 35 34 34 33 32 33 35 39 44 49 53 55 55 54 57 62 68
30 31 33 33 35 37 39 40 40 38 39 39 40 40 41 43 42 41 42 41 40 42 43 44 46 47 48 48 47 46 43 43 42 41 38 36 36 35 34 33 33 33 35 37 40 45 49 52 53 55 59 65
30 31 33 34 34 36 37 38 40 40 40 41 43 43 42 41 39 38 37 37 39 41 44 46 47 46 47 47 47 47 46 44 44 43 41 39 38 37 37 36 35 35 35 35 37 40 44 48 51 53 56 61
32 32 33 34 35 36 37 38 40 41 41 42 43 44 43 41 39 37 35 36 38 39 40 42 43 43 43 44 45 46 46 46 45 44 44 43 42 41 40 39 38 37 36 36 36 38 40 44 48 51 53 57
34 34 35 36 36 37 38 39 40 41 42 42 42 43 42 40 40 40 37 38 40 39 39 38 38 39 38 40 43 44 45 46 46 46 47 47 47 46 45 44 43 42 40 38 38 38 39 42 45 48 52 55
35 35 36 37 38 38 39 40 41 41 42 42 42 43 42 41 42 43 42 42 43 43 43 42 40 40 39 38 39 41 44 45 46 47 48 49 49 49 49 48 46 45 43 41 40 40 40 41 43 46 50 53
37 37 37 38 38 39 40 40 41 42 43 43 43 43 42 44 45 43 44 45 45 45 46 46 44 44 43 41 40 39 41 42 43 45 45 47 48 48 49 49 47 46 45 44 42 42 42 42 43 45 48 51
38 39 39 39 39 40 40 41 41 42 44 44 45 44 42 44 44 43 45 47 47 46 47 47 46 44 42 41 41 40 40 40 41 42 42 43 44 45 45 46 46 45 45 45 44 44 43 43 43 44 46 49
40 40 41 41 41 41 41 41 42 43 44 44 45 46 45 46 44 45 48 48 47 46 47 48 47 44 41 41 41 39 39 40 41 42 42 41 42 42 43 43 44 44 44 45 46 46 46 45 44 44 45 46
42 42 43 43 42 42 42 43 43 43 44 45 45 46 47 48 48 48 49 48 46 44 44 46 43 40 41 43 42 39 38 39 41 42 43 43 41 41 42 43 43 44 44 45 45 47 47 48 47 46 46 45
45 44 45 45 44 45 45 45 45 44 44 45 46 46 47 49 49 49 52 52 49 46 43 42 41 40 40 41 41 39 39 39 40 42 44 45 44 44 44 44 44 44 44 44 44 44 46 47 48 48 48 47
47 47 47 47 47 47 47 48 48 47 47 47 47 48 48 50 51 52 54 55 53 52 50 47 45 44 42 41 39 40 41 40 40 42 44 46 45 47 50 49 48 47 46 45 44 44 44 45 47 48 49 49
50 51 50 50 50 50 50 50 50 50 50 49 49 49 49 51 53 54 55 55 54 55 57 57 55 52 49 47 43 42 42 39 38 40 43 45 45 47 52 53 52 50 49 48 47 47 46 46 46 46 47 47
52 53 54 53 53 53 53 53 53 53 53 53 52 51 52 52 53 54 54 55 55 55 57 59 60 58 56 56 50 45 44 41 41 43 44 45 47 49 51 52 52 52 51 51 51 50 50 49 48 47 46 46
54 54 55 56 56 56 56 56 55 56 56 56 56 54 55 56 55 55 55 55 56 56 57 57 59 59 58 60 58 53 50 46 43 45 45 45 47 50 51 51 51 53 53 53 53 53 52 51 50 49 48 48
60 58 57 57 58 59 59 58 58 59 59 58 59 58 57 59 59 58 57 56 56 56 57 57 57 58 58 59 61 60 59 57 49 45 46 46 47 50 51 52 53 53 54 54 54 55 54 52 52 51 50 49
62 62 61 60 60 61 61 61 61 61 62 61 61 61 60 61 62 62 60 59 58 58 58 59 58 59 60 59 60 60 62 65 62 57 54 52 51 51 52 53 55 55 55 56 56 56 56 55 54 52 50 49
61 62 63 63 63 64 64 64 65 64 65 64 63 64 64 63 64 65 64 63 62 61 60 61 62 62 62 61 61 61 62 65 68 68 66 64 62 59 58 58 59 59 59 59 59 59 58 57 56 53 52 52
60 61 62 63 64 65 66 66 67 67 68 68 67 67 67 66 67 68 68 67 66 64 64 64 64 64 64 63 63 63 64 65 66 69 69 70 69 67 65 65 65 65 63 62 61 60 59 59 58 56 55 55
61 61 62 63 64 65 66 67 68 69 70 70 70 70 70 70 70 71 71 71 70 69 68 67 67 67 66 66 65 65 66 66 66 67 68 69 69 68 68 69 70 69 67 66 64 62 61 61 61 59 58 56

ECMWFFLT2_500_spd_141.txt.gz
Wind_Speed
33 35 36 37 37 32 29 32 35 37 38 36 35 36 37 35 35 37 38 41 38 34 32 33 34 35 39 43 42 41 41 41 42 44 47 49 49 50 52 52 51 51 52 52 51 50 50 50 50 50 49 49
31 33 34 35 35 28 29 39 41 41 39 37 38 38 38 37 38 38 37 37 35 32 31 31 32 32 35 38 37 34 35 36 37 38 41 44 46 48 49 50 50 50 52 53 53 51 52 52 53 52 51 50
29 31 32 32 31 27 34 45 40 37 38 36 38 38 37 39 41 39 38 40 39 35 32 31 31 30 32 36 38 38 37 36 37 37 38 41 44 45 46 47 47 47 48 51 54 54 54 54 54 53 52 52
28 29 31 30 29 27 34 39 32 33 35 35 37 37 38 40 42 42 41 42 42 41 40 38 37 35 35 36 38 39 38 37 36 37 38 41 43 44 44 44 44 44 43 43 48 53 56 56 55 54 53 53
28 28 30 30 29 28 29 33 34 34 35 36 38 40 41 42 41 41 41 41 41 42 43 44 45 44 42 41 41 40 40 38 36 37 38 41 42 43 44 44 44 44 43 41 40 45 53 56 55 54 53 53
28 28 29 30 31 32 30 32 35 36 38 40 41 40 39 40 42 41 41 41 42 43 43 45 46 47 46 45 44 43 42 40 38 37 37 39 40 40 42 44 45 45 44 43 39 39 45 51 54 54 53 53
29 29 29 29 30 34 36 34 35 37 39 41 43 42 37 38 41 41 43 43 42 43 43 43 44 46 46 45 45 44 43 42 40 39 38 38 38 38 39 40 43 44 44 45 43 41 41 44 49 51 53 54
29 30 31 31 30 33 37 37 37 37 37 38 42 44 41 40 40 40 43 44 44 43 42 42 43 43 44 44 44 44 43 42 41 40 39 38 38 39 38 37 39 40 42 45 46 45 44 44 45 47 49 51
28 29 30 32 32 33 35 36 38 39 39 38 39 41 42 41 41 41 43 45 45 46 46 46 45 44 43 43 44 45 44 42 41 41 41 40 39 39 39 37 36 36 38 43 47 48 47 47 46 47 48 48
28 29 30 32 34 35 36 35 36 38 40 41 39 38 38 38 40 41 40 42 44 45 45 45 46 45 44 44 44 45 45 44 43 42 42 42 41 41 40 39 37 35 35 37 42 46 49 49 48 49 50 50
29 30 32 33 35 35 35 37 38 37 38 40 40 39 38 39 41 40 37 37 38 40 41 41 43 44 45 45 46 46 45 45 45 44 44 43 43 43 41 41 40 37 35 35 35 38 42 46 48 49 50 52
31 32 33 34 35 36 35 36 38 37 35 38 42 41 41 40 40 40 39 37 35 35 38 39 40 41 42 43 44 44 44 45 45 46 45 45 44 44 42 42 41 39 36 36 35 35 34 37 42 47 50 51
33 34 35 35 36 37 37 37 38 38 37 40 43 42 42 40 40 40 40 40 38 35 35 36 36 38 39 39 40 40 42 43 44 45 45 46 45 44 44 42 42 40 38 37 37 37 35 34 36 41 47 51
34 35 36 38 38 38 39 39 39 40 41 43 44 44 43 42 42 42 41 42 43 40 38 34 33 35 37 38 38 39 41 43 44 44 45 46 46 46 45 43 42 41 40 39 38 37 36 35 36 37 41 46
36 36 37 39 40 40 40 40 40 41 42 43 44 44 44 43 43 44 44 43 45 44 42 38 35 34 36 38 39 40 41 42 43 45 45 45 46 45 45 43 42 42 42 41 40 39 37 36 36 37 38 41
39 38 38 39 41 42 41 41 41 41 42 43 44 44 43 42 42 44 46 45 44 44 40 39 39 37 39 40 41 41 40 40 40 41 42 43 44 44 44 44 43 43 43 43 43 42 40 39 38 38 39 40
43 41 41 41 42 43 42 41 43 43 42 43 43 43 43 42 42 42 45 45 44 43 39 39 40 39 41 41 40 40 40 39 38 38 39 40 41 42 43 44 44 45 45 45 45 45 45 44 43 42 41 42
45 45 44 43 43 45 44 42 43 44 44 44 44 45 44 45 46 44 45 46 44 44 43 41 40 40 41 40 40 40 40 40 39 39 40 39 40 40 41 42 43 45 46 47 47 48 48 48 48 47 45 45
47 47 48 47 46 47 47 45 44 45 46 46 46 47 46 47 48 48 48 49 46 45 46 44 44 43 41 40 39 38 38 40 41 41 42 41 40 40 40 40 41 42 44 46 47 48 48 49 49 49 48 47
48 49 50 50 49 49 49 49 48 47 47 47 48 48 49 49 49 50 51 51 49 47 48 47 47 46 43 42 40 37 38 40 41 42 42 40 39 39 40 41 41 41 42 43 44 46 47 48 49 49 49 48
49 50 51 52 52 52 52 52 51 50 49 49 49 49 50 51 51 50 51 52 51 51 52 49 48 47 46 48 46 41 40 41 41 40 39 39 39 38 39 40 41 41 41 41 42 43 45 45 46 47 47 47
53 53 53 54 54 55 55 55 54 54 53 52 51 51 52 52 52 52 52 52 53 53 53 51 48 48 49 51 49 43 39 40 40 38 37 37 38 39 39 39 40 41 41 42 42 42 43 43 42 43 45 46
58 56 56 56 56 57 57 57 57 57 56 56 55 53 53 54 54 54 54 54 54 54 55 54 53 52 54 55 51 45 40 39 41 40 38 37 38 39 40 39 40 41 41 42 44 44 44 44 44 43 42 43
62 61 59 59 58 59 60 60 59 59 59 59 58 57 56 56 56 55 56 56 56 56 56 57 58 60 62 60 55 50 44 41 44 45 44 41 40 40 40 39 39 41 43 45 46 45 46 47 47 47 45 43
64 64 63 62 61 60 62 62 62 61 62 61 60 61 60 59 58 57 57 57 57 58 58 58 61 63 64 62 59 57 54 48 46 48 47 46 44 43 42 41 39 41 44 46 46 45 46 48 49 50 49 48
65 65 65 64 64 62 62 63 64 64 64 63 62 63 63 62 61 61 61 60 60 60 61 61 63 63 62 61 61 61 61 59 55 53 51 49 49 47 46 44 41 42 43 45 47 47 47 51 53 53 53 51
64 65 66 66 65 65 64 64 65 66 65 65 65 66 66 64 63 64 64 63 63 63 63 64 64 64 63 63 63 62 63 65 65 62 59 56 55 53 51 49 45 44 44 44 47 48 47 48 52 54 54 53
63 64 65 65 65 66 66 65 65 66 67 67 67 68 68 67 66 65 65 65 66 65 65 65 65 66 66 65 65 64 63 64 67 69 68 64 62 60 58 55 51 48 46 44 46 49 47 46 49 53 54 54
65 65 65 65 65 65 65 66 66 67 68 69 70 71 71 70 69 68 67 68 69 69 68 68 67 68 68 67 67 67 65 64 66 70 72 71 70 67 65 63 59 54 49 46 47 50 52 51 51 52 53 55
67 67 67 66 66 66 65 65 66 66 68 70 71 72 73 73 72 71 71 71 72 71 70 69 68 68 70 70 70 69 68 67 67 69 71 72 72 71 69 70 69 63 57 53 51 51 53 53 51 51 53 55
68 68 68 68 67 67 67 66 66 66 67 68 70 72 74 75 75 74 73 73 74 74 73 72 69 66 66 71 75 73 70 70 70 71 71 72 72 72 71 71 73 72 66 63 60 56 54 53 51 50 52 54

ECMWFFLT2_500_spd_144.txt.gz
Wind_Speed
35 34 34 35 36 38 40 42 44 43 39 36 36 36 37 37 38 38 37 38 38 37 37 36 40 41 31 26 32 34 36 41 43 42 42 43 44 46 48 49 49 50 50 51 51 50 51 50 47 48 50 49
33 34 34 34 36 37 38 38 40 41 38 37 37 38 38 37 37 39 39 39 39 37 36 37 42 44 35 29 30 31 32 34 38 42 42 41 42 44 48 50 48 48 49 50 52 52 52 52 49 49 50 51
30 32 33 33 34 37 37 36 35 34 32 35 38 39 41 39 39 42 42 41 41 40 39 41 45 43 35 30 30 32 31 30 33 39 39 36 36 39 42 46 46 46 48 50 51 53 53 54 53 51 51 52
28 29 31 32 33 35 37 35 31 25 25 35 41 42 44 43 42 43 44 43 43 43 43 45 46 42 38 35 35 35 34 31 30 35 39 36 33 33 35 40 43 43 43 46 49 51 51 53 54 53 54 54
29 28 30 31 31 33 35 34 29 24 27 35 36 34 38 40 41 43 46 45 45 47 46 46 46 43 41 39 38 39 39 37 34 35 39 39 36 31 31 35 39 41 41 43 46 48 49 51 53 53 54 55
29 29 30 31 31 32 33 34 30 29 34 35 29 26 30 35 36 39 44 46 43 42 42 42 42 42 41 40 39 40 42 42 41 41 41 41 39 36 34 34 36 38 40 42 43 45 47 49 51 51 52 53
29 29 30 31 33 33 33 33 30 31 36 36 31 29 29 31 33 33 35 37 36 35 36 37 38 40 40 41 40 40 41 42 42 43 44 43 42 40 38 37 37 35 36 39 41 43 45 48 49 50 50 50
29 30 30 31 34 35 34 34 32 33 38 39 36 33 32 32 33 32 31 30 30 32 33 34 34 35 36 38 40 41 41 40 39 40 41 42 42 41 39 39 39 38 37 37 38 40 43 46 48 49 48 48
31 31 31 31 33 35 36 37 36 35 38 44 44 40 37 37 37 36 35 32 29 30 32 33 34 33 34 36 38 41 41 41 41 41 41 41 40 39 39 40 40 39 39 38 38 38 39 41 45 47 47 46
33 32 33 33 33 35 37 38 40 38 38 43 46 44 41 41 42 40 38 36 34 33 32 31 32 32 32 32 35 39 42 44 45 45 44 43 41 40 39 40 40 40 39 39 39 38 38 38 40 43 47 47
35 34 34 35 35 35 36 38 41 42 41 43 45 45 44 43 42 41 41 40 40 39 37 33 30 27 28 29 32 35 38 41 44 45 45 44 43 43 42 41 41 42 41 41 40 39 39 38 38 39 43 47
37 37 36 36 37 38 38 39 41 43 43 44 45 44 45 45 41 39 42 44 44 43 42 40 36 31 30 30 31 33 34 37 39 41 42 43 44 45 45 43 42 43 44 44 43 41 40 40 39 38 40 43
38 38 38 38 39 40 40 40 41 43 44 45 46 44 44 46 45 40 40 43 46 46 45 44 42 38 36 36 33 32 33 34 35 36 37 39 42 44 46 46 45 44 45 46 46 44 42 41 40 39 38 39
41 41 40 40 40 41 42 43 43 43 44 46 47 46 44 45 46 44 42 42 45 47 47 46 44 41 40 41 39 36 34 32 31 31 33 35 37 40 43 45 46 45 46 46 47 46 44 43 42 40 40 39
45 45 44 42 42 43 44 44 45 45 45 47 48 48 47 46 47 47 48 47 46 46 46 46 45 43 42 42 43 42 39 36 33 32 32 34 36 38 40 43 44 45 45 45 46 46 45 44 43 42 41 41
48 48 48 46 45 45 46 46 47 47 47 48 49 49 49 48 48 49 51 52 51 48 46 46 46 46 44 44 44 43 42 41 39 37 36 36 37 38 40 41 43 44 45 45 46 46 46 45 44 44 43 42
49 50 51 51 50 48 48 49 50 49 49 49 50 50 50 50 50 50 51 53 54 53 50 49 48 46 46 46 44 41 39 38 38 39 38 37 35 36 37 38 40 42 44 46 47 47 47 46 46 45 45 44
50 51 52 53 54 53 51 51 52 52 52 51 51 51 51 50 51 52 52 53 54 54 52 50 48 46 47 48 45 43 40 36 36 38 38 37 36 36 36 36 37 38 41 43 46 47 47 47 47 47 47 47
52 52 52 54 56 57 56 55 54 55 55 55 53 52 52 52 52 53 53 54 53 53 53 51 50 47 47 49 46 43 43 39 36 37 39 39 39 39 39 39 39 38 39 41 43 45 46 47 48 48 49 49
56 55 54 54 55 58 60 59 58 58 58 58 56 55 55 54 54 54 54 54 54 54 53 53 53 51 49 50 47 44 45 43 40 40 41 41 40 40 40 41 41 40 40 41 42 43 44 46 47 48 49 50
60 59 58 57 56 57 60 62 62 61 61 62 60 58 57 56 56 56 56 55 55 55 55 55 56 55 53 53 52 50 49 48 47 46 43 42 42 42 41 41 42 42 42 43 43 44 45 45 45 46 47 48
62 62 62 61 60 59 60 62 63 64 64 64 64 62 61 59 59 58 57 57 56 56 56 56 56 57 57 57 56 55 53 51 52 51 47 44 43 44 45 42 42 44 44 44 44 44 45 45 45 45 45 45
64 64 64 64 63 62 62 62 64 65 66 66 66 66 64 63 63 61 59 59 59 58 58 57 57 57 57 58 59 59 56 52 51 51 51 50 47 47 48 45 43 44 44 44 44 44 44 45 45 45 45 44
66 66 66 66 66 65 65 64 64 65 67 67 68 68 67 66 66 65 62 61 61 60 60 59 59 60 58 58 58 58 58 55 54 52 49 49 49 47 49 47 45 44 44 44 43 43 44 45 45 45 45 44
66 66 67 67 68 68 68 67 67 66 67 68 69 69 69 68 69 69 66 65 65 63 63 62 61 62 62 61 59 58 60 61 61 58 53 51 51 49 47 47 46 45 44 43 43 42 42 43 44 45 45 44
66 66 66 66 67 68 69 69 69 69 69 69 69 70 71 71 71 70 69 69 68 68 66 65 64 64 64 64 63 62 62 63 63 62 61 60 58 55 50 47 48 49 47 43 42 42 43 44 45 45 45 45
67 67 67 67 67 67 68 69 70 70 70 70 71 71 72 72 72 71 71 70 71 72 70 68 68 67 66 66 65 65 64 64 63 64 67 67 66 63 58 53 52 53 52 48 45 46 47 48 48 47 46 45
70 70 70 70 69 69 68 68 69 69 70 70 71 72 73 73 73 73 72 70 71 74 73 70 71 71 70 69 68 67 66 66 66 66 68 71 71 70 65 60 57 56 57 54 50 49 50 50 50 48 47 45
74 73 73 73 73 73 72 71 70 70 70 70 70 72 74 74 74 74 73 72 72 75 73 70 70 73 74 73 71 71 69 68 68 68 68 72 74 72 69 66 64 61 59 58 54 52 53 53 52 50 49 49
77 76 76 76 76 76 76 75 74 73 72 72 72 72 73 75 76 75 75 74 74 75 73 69 67 70 74 74 72 73 73 72 71 70 71 74 74 72 70 70 70 67 64 62 60 58 57 57 57 55 55 54
78 78 78 78 78 78 78 78 78 78 76 75 74 74 74 74 76 77 77 76 76 76 74 72 70 70 73 73 71 71 74 75 74 73 74 77 76 74 73 73 73 73 72 69 67 64 62 62 62 61 60 58

ECMWFFLT2_500_spd_150.txt.gz
Wind_Speed
38 38 37 37 37 37 37 38 38 37 36 36 36 38 39 38 38 39 39 38 37 38 38 37 39 42 43 44 47 45 44 46 45 43 44 47 46 47 47 46 47 47 47 47 47 48 49 49 51 52 53 54
40 40 38 38 37 37 37 37 38 38 37 37 37 37 39 39 38 40 41 40 38 37 38 40 42 45 46 45 50 50 45 47 51 49 49 49 47 49 51 47 47 48 48 50 50 50 51 51 51 52 54 55
42 41 40 39 38 38 37 37 38 38 38 37 37 37 38 38 39 41 41 41 41 38 38 41 42 44 46 46 49 51 47 48 53 50 47 45 44 47 49 48 47 47 46 48 51 51 51 52 51 51 54 54
43 42 42 41 39 39 39 38 37 38 38 38 38 37 37 36 36 40 40 39 42 40 41 42 41 43 47 49 50 51 47 45 47 45 42 41 43 45 46 46 46 45 45 47 49 51 53 52 51 51 52 54
44 43 42 42 41 41 40 40 38 38 38 39 39 38 38 35 33 38 40 39 40 41 43 44 42 43 46 48 51 52 50 48 47 48 48 47 48 47 46 45 45 45 45 45 45 47 50 51 50 50 50 52
45 44 43 43 42 42 42 42 40 38 38 39 40 40 38 37 35 37 40 40 40 39 41 43 43 44 47 50 51 52 52 53 54 56 55 55 54 51 48 47 45 43 43 43 42 43 46 47 47 48 50 51
47 46 45 45 44 43 43 44 44 42 40 39 40 41 40 38 37 37 39 40 39 40 41 42 43 45 47 50 51 53 53 54 56 57 57 58 57 53 53 52 48 44 42 41 40 42 46 48 48 48 49 51
48 48 47 47 46 45 44 44 45 45 44 41 41 42 42 40 39 39 40 40 39 39 39 39 42 45 48 50 53 54 55 55 55 53 54 56 54 53 54 56 54 50 46 44 43 43 44 46 49 50 50 51
48 49 49 49 49 48 47 45 45 47 47 45 43 43 43 43 42 42 43 44 45 44 42 41 40 41 45 49 52 52 50 50 50 46 47 49 49 48 51 54 56 56 54 52 50 47 45 43 44 47 47 48
49 50 50 50 50 50 50 49 47 47 48 49 47 45 45 45 44 44 45 46 49 52 52 50 48 46 45 45 46 47 44 43 42 40 41 44 45 43 44 48 52 54 56 57 55 52 50 47 44 43 43 43
50 51 51 51 51 52 52 52 51 49 49 50 50 49 48 48 46 46 47 48 49 52 54 56 57 57 54 50 48 47 46 42 39 37 37 40 44 43 42 44 46 49 53 55 54 52 51 50 47 44 44 42
52 52 52 52 52 53 53 54 54 53 52 51 52 52 51 51 49 49 49 49 49 50 53 56 58 60 60 58 55 54 52 49 45 41 38 38 39 41 42 43 44 46 48 51 52 50 49 49 47 45 45 44
53 53 54 54 54 54 54 55 55 56 56 54 54 54 54 54 53 52 52 51 50 50 53 55 57 59 61 60 58 59 58 56 53 50 47 44 40 39 40 42 44 45 45 47 48 49 49 48 47 46 45 45
54 54 54 55 56 56 56 56 57 57 58 58 57 56 56 56 56 56 55 54 53 51 52 55 57 58 59 59 58 58 60 60 59 57 55 54 50 46 43 41 42 44 45 46 47 48 49 49 49 48 46 45
56 56 55 55 56 57 57 57 58 59 59 59 59 59 59 58 58 58 58 57 56 54 53 55 57 58 59 59 58 58 59 60 60 59 57 57 56 54 52 49 45 44 45 46 47 47 49 50 50 50 49 48
60 59 58 58 57 58 58 59 59 59 61 61 61 61 61 61 61 60 60 60 59 58 56 56 57 59 59 59 58 59 58 58 60 59 57 56 55 55 55 54 52 49 47 46 46 46 47 48 49 50 50 49
63 62 62 61 61 60 60 60 61 61 61 63 63 64 64 64 64 63 63 62 60 60 60 58 58 58 59 59 59 60 59 57 58 59 57 55 55 54 54 54 54 54 53 51 48 47 46 47 48 49 50 49
65 65 65 65 64 64 63 63 63 63 63 64 65 66 66 66 66 66 66 66 64 64 62 61 60 60 60 59 60 61 60 56 57 59 58 56 55 55 55 54 53 55 56 56 55 51 49 47 47 49 50 49
67 67 67 67 67 66 66 66 66 66 66 66 66 67 68 68 68 69 69 69 68 68 66 64 63 62 62 61 61 61 60 59 59 59 59 58 57 56 56 55 53 54 55 57 57 57 54 51 49 49 49 50
68 69 69 68 68 68 68 68 68 68 68 68 69 69 70 70 70 70 70 71 71 71 70 69 67 65 63 63 62 61 60 60 60 60 60 61 60 59 59 59 57 56 56 57 58 58 58 55 53 51 50 50
70 71 71 71 70 70 69 68 68 69 69 70 70 71 72 73 73 73 72 72 73 73 73 72 72 70 67 66 65 63 62 61 61 60 60 61 61 60 60 61 61 60 59 59 59 59 59 59 57 55 53 52
72 73 73 73 73 73 73 72 71 70 69 70 70 71 73 74 75 76 76 75 75 75 75 74 74 73 71 70 68 65 64 62 62 62 60 60 59 57 57 58 57 59 60 59 59 60 60 59 58 57 56 55
73 73 74 75 75 76 76 76 75 74 72 71 71 71 72 74 75 77 78 78 78 77 76 76 76 75 74 74 72 70 67 62 61 63 61 61 58 55 56 55 52 54 57 57 58 59 59 58 57 57 57 57
74 74 75 76 76 77 77 78 78 78 77 76 74 73 73 73 74 76 78 79 80 79 78 77 77 76 76 76 74 72 72 68 66 66 64 63 61 59 60 59 55 54 55 57 57 56 57 57 56 55 56 57
73 74 75 76 77 78 78 79 80 80 81 80 79 78 76 75 74 75 76 78 80 81 81 79 78 78 77 77 74 72 73 73 70 68 66 64 63 62 62 62 59 56 57 58 57 56 55 55 56 56 58 58
70 72 74 75 77 78 79 80 80 81 82 82 82 82 81 80 78 77 77 77 79 80 81 81 80 79 78 78 76 73 71 72 71 70 69 67 66 65 63 63 60 57 58 60 58 58 58 57 57 58 60 59
69 70 71 73 75 77 79 80 81 82 82 83 83 84 84 83 82 81 80 79 79 80 81 82 81 80 79 78 78 75 72 71 71 74 74 71 69 68 66 65 64 61 61 61 60 62 63 63 61 61 62 60
69 69 70 71 73 75 77 79 80 82 83 84 84 85 85 85 85 84 83 82 81 81 81 82 83 82 81 79 78 78 75 73 72 74 76 75 73 71 69 68 67 67 66 64 64 65 67 67 66 66 65 64
69 70 71 72 73 74 76 77 79 80 82 84 85 86 86 87 87 87 86 85 84 84 83 83 84 84 83 81 80 79 78 77 74 71 72 74 76 75 73 72 70 71 72 70 68 68 69 68 69 70 68 68
69 70 71 72 73 74 75 76 77 78 80 82 84 86 87 88 88 89 89 88 87 86 86 86 85 85 85 84 83 81 80 79 77 74 72 70 72 72 72 74 74 74 75 75 73 71 71 71 70 68 68 70
69 70 70 71 72 73 75 76 77 78 78 80 82 84 86 88 89 89 90 90 90 89 88 88 87 87 87 86 86 84 82 80 79 81 81 75 71 70 71 75 76 76 77 78 78 76 74 74 73 70 66 66

ECMWFFLT2_500_spd_156.txt.gz
Wind_Speed
44 45 45 46 47 47 47 47 47 47 46 46 46 47 48 49 49 50 50 50 50 51 50 50 50 49 48 48 48 47 46 45 45 44 44 45 45 46 47 47 49 50 51 52 54 53 51 50 48 47 45 44
45 45 46 46 47 48 49 49 49 49 48 47 47 47 48 49 50 50 50 51 51 52 51 51 50 50 49 48 48 48 47 46 45 44 43 43 43 45 46 46 46 48 52 54 55 54 53 50 48 47 45 45
45 45 46 47 47 48 49 50 50 50 50 49 49 48 49 49 50 51 51 51 52 52 52 52 51 50 50 49 49 49 48 47 46 45 44 43 42 44 45 45 44 47 54 57 55 53 54 52 49 48 47 46
46 46 47 47 48 49 50 50 51 52 52 51 51 50 49 49 50 51 52 52 52 52 53 53 53 52 52 51 50 49 49 48 47 46 46 45 43 43 44 44 43 46 54 60 59 55 53 51 50 51 49 47
47 48 48 49 49 50 51 51 52 53 53 53 53 52 51 51 51 52 52 53 53 53 53 53 54 54 54 53 52 50 49 48 47 46 46 46 45 44 44 43 42 47 53 58 60 57 53 51 50 51 49 48
48 49 49 50 51 51 52 52 53 53 54 54 55 55 54 53 53 53 53 54 54 54 53 53 54 55 55 55 55 53 50 47 47 47 47 47 47 45 45 45 43 48 53 54 57 58 55 52 51 52 51 51
50 50 51 51 52 52 52 53 53 54 55 55 56 56 56 56 55 55 54 54 55 56 55 55 54 55 55 56 56 56 54 50 48 48 48 48 47 46 46 48 46 48 53 55 56 57 57 53 52 55 56 55
52 53 53 53 53 54 54 54 54 55 55 56 57 57 58 58 58 57 56 56 56 57 57 57 56 56 56 56 56 57 57 55 52 50 50 49 49 48 48 50 51 51 53 58 57 52 53 54 54 58 61 61
55 55 56 56 56 56 56 56 56 57 57 57 58 59 59 59 59 59 59 58 57 57 57 58 58 57 57 57 57 57 57 57 56 54 52 51 50 51 51 52 54 55 55 58 59 49 47 52 53 56 60 61
58 58 58 58 58 59 59 59 59 59 60 60 60 60 61 61 61 61 61 60 59 58 58 58 58 59 59 58 58 58 59 58 57 55 54 53 52 51 52 53 55 58 58 60 62 55 49 50 49 50 53 53
61 61 61 61 62 61 61 61 62 62 62 62 63 63 63 63 63 63 63 62 62 61 60 59 59 59 60 60 60 59 60 59 58 56 55 55 54 53 53 54 55 58 62 64 67 65 59 57 55 51 51 51
64 64 64 65 65 65 65 64 64 64 64 65 65 65 65 65 66 65 65 64 64 64 63 62 60 60 60 61 61 61 60 60 60 59 57 56 56 56 55 55 56 58 62 65 68 69 66 64 64 61 57 56
65 65 66 66 66 67 67 67 67 67 67 67 67 67 67 67 68 68 67 67 66 66 65 64 63 62 62 62 62 62 62 61 61 61 61 59 57 57 58 58 58 59 62 64 66 67 67 66 65 66 64 62
65 65 66 66 67 67 68 68 69 69 69 68 68 68 69 69 70 70 70 70 69 68 67 67 66 65 64 64 63 63 64 63 63 62 63 62 60 60 60 61 61 61 62 63 63 61 61 62 63 64 64 64
66 67 67 68 68 69 69 69 69 70 70 70 70 70 70 70 70 71 71 72 72 72 71 70 69 68 67 66 65 65 65 65 65 64 64 64 63 63 63 63 64 66 65 65 64 61 57 56 58 59 58 59
68 69 69 70 70 70 70 70 71 71 71 71 72 72 71 71 71 71 72 72 73 74 74 73 72 71 70 69 68 67 67 67 67 67 67 67 66 65 65 66 66 67 68 69 68 66 63 59 58 56 53 52
70 70 70 71 72 72 72 72 72 72 72 72 73 73 73 73 73 73 73 73 73 74 75 76 76 75 74 73 71 70 69 69 69 69 69 69 68 68 68 68 68 68 69 70 71 70 69 67 66 63 59 56
70 70 71 71 72 73 73 74 74 74 74 74 74 74 74 75 75 75 74 74 74 75 75 75 77 77 78 77 75 74 73 72 71 71 71 70 70 70 70 70 70 70 70 71 71 71 70 69 70 70 68 67
69 69 70 70 70 70 71 72 73 74 74 75 75 75 76 76 76 76 76 76 76 76 76 76 76 77 78 79 79 78 76 75 74 74 73 73 72 72 72 71 71 73 73 72 71 71 70 69 69 70 69 69
67 67 66 67 67 67 67 68 69 70 71 72 73 74 76 76 77 77 78 78 77 77 77 77 78 78 78 79 80 80 80 79 77 77 76 76 75 74 74 73 73 74 74 73 73 73 71 70 69 68 68 68
63 62 62 62 62 63 63 63 64 64 66 67 69 70 72 74 75 77 78 79 79 79 79 79 79 79 79 80 80 81 82 81 80 79 78 78 78 77 77 76 75 75 75 74 74 75 74 72 70 68 67 67
57 57 57 57 57 58 58 59 60 60 61 62 63 65 68 70 71 74 75 77 79 80 81 81 81 80 80 81 81 81 82 82 83 82 81 80 80 80 79 79 78 77 75 75 75 75 75 74 72 70 67 67
53 52 52 52 53 53 53 54 55 55 56 56 57 59 62 65 67 70 72 75 77 79 80 81 82 82 82 82 82 83 83 83 83 84 84 82 81 82 82 81 80 80 78 76 75 75 75 75 74 72 69 67
49 49 49 50 50 50 51 51 52 53 54 54 55 55 57 59 62 65 68 71 74 77 79 81 82 83 84 84 84 84 84 84 84 84 85 85 84 82 83 83 83 82 81 78 77 76 76 76 75 74 73 69
48 49 50 50 51 52 53 54 55 55 56 56 56 56 57 59 60 62 64 67 70 74 77 80 82 83 84 85 86 86 86 86 86 85 85 85 86 85 83 83 84 84 83 81 79 77 77 77 75 75 75 72
49 51 52 54 55 56 57 58 58 59 60 60 60 60 60 61 62 63 64 66 67 70 74 78 81 83 85 86 87 87 87 87 88 87 86 85 86 87 86 84 84 84 84 84 81 79 78 77 76 75 75 75
52 54 56 57 58 60 60 61 61 61 62 63 63 63 63 64 65 65 66 67 68 69 70 74 78 81 84 86 87 88 89 89 89 89 89 88 86 86 87 87 85 84 84 84 83 81 79 78 78 77 77 76
55 57 59 60 61 62 62 62 63 63 64 65 65 66 66 67 67 68 69 69 70 70 70 71 74 78 81 84 87 89 90 90 90 90 90 90 89 87 86 87 87 86 85 85 84 82 80 78 78 79 79 77
58 60 61 62 62 63 64 64 65 65 66 66 67 68 68 69 70 71 72 72 72 71 71 71 72 74 77 80 83 86 89 90 91 91 91 91 91 90 88 86 87 87 87 86 85 83 81 80 78 80 80 78
60 62 63 64 64 65 65 65 66 67 67 68 69 69 70 71 72 73 74 74 73 72 71 70 71 73 74 76 78 81 84 87 90 92 92 92 91 92 91 89 87 87 88 87 86 85 83 82 82 82 82 80
62 64 64 65 65 66 67 67 67 68 69 69 70 71 71 72 74 75 76 76 75 73 70 69 70 71 72 74 75 76 78 82 86 89 92 93 92 91 92 91 89 87 87 87 87 87 85 83 83 84 84 82